Wetterdaten: aktuell Sonntag, 16.06.2019 19:08
Datum Zeit Temp. Aussen Temp. o. S. +5cm Feuchte Auss Luftdruck Regen Sonnenschein Regendauer Solar Windben Empfang
16.06.2019 19:08 23,6 C 23,3 C 21,7 C 59 % 1020,0 hPa 0,0 l/m 2 min 0 min 437 W/m 9,7 km/h (2 Bft) 91,49 %
16.06.2019 19:06 23,6 C 23,3 C 21,7 C 58 % 1020,1 hPa 0,0 l/m 2 min 0 min 427 W/m 12,9 km/h (3 Bft) 93,62 %
16.06.2019 19:04 23,6 C 23,3 C 21,7 C 59 % 1020,1 hPa 0,0 l/m 2 min 0 min 265 W/m 9,7 km/h (2 Bft) 93,62 %
16.06.2019 19:02 23,6 C 23,3 C 21,7 C 59 % 1020,1 hPa 0,0 l/m 2 min 0 min 311 W/m 3,2 km/h (1 Bft) 93,62 %
16.06.2019 19:00 23,6 C 23,3 C 21,7 C 59 % 1020,1 hPa 0,0 l/m 2 min 0 min 417 W/m 6,4 km/h (2 Bft) 93,62 %
16.06.2019 18:58 23,6 C 22,8 C 21,1 C 59 % 1020,1 hPa 0,0 l/m 2 min 0 min 408 W/m 9,7 km/h (2 Bft) 93,62 %
16.06.2019 18:56 23,7 C 22,2 C 21,1 C 58 % 1020,1 hPa 0,0 l/m 2 min 0 min 413 W/m 9,7 km/h (2 Bft) 95,65 %
16.06.2019 18:54 23,7 C 21,7 C 21,1 C 58 % 1020,1 hPa 0,0 l/m 2 min 0 min 214 W/m 6,4 km/h (2 Bft) 95,74 %
16.06.2019 18:52 23,8 C 21,7 C 20,6 C 58 % 1020,1 hPa 0,0 l/m 0 min 0 min 81 W/m 9,7 km/h (2 Bft) 95,74 %
16.06.2019 18:50 23,9 C 21,7 C 21,1 C 58 % 1020,1 hPa 0,0 l/m 0 min 0 min 63 W/m 6,4 km/h (2 Bft) 97,87 %
16.06.2019 18:48 24,1 C 22,2 C 21,1 C 58 % 1020,1 hPa 0,0 l/m 0 min 0 min 56 W/m 6,4 km/h (2 Bft) 100,00 %
16.06.2019 18:46 24,2 C 22,8 C 21,7 C 57 % 1020,1 hPa 0,0 l/m 0 min 0 min 53 W/m 9,7 km/h (2 Bft) 97,83 %
16.06.2019 18:44 24,3 C 22,8 C 21,7 C 58 % 1020,2 hPa 0,0 l/m 2 min 0 min 349 W/m 9,7 km/h (2 Bft) 97,87 %
16.06.2019 18:42 24,3 C 23,3 C 22,2 C 58 % 1020,1 hPa 0,0 l/m 2 min 0 min 383 W/m 6,4 km/h (2 Bft) 97,87 %
16.06.2019 18:40 24,3 C 23,9 C 22,2 C 57 % 1020,1 hPa 0,0 l/m 2 min 0 min 430 W/m 9,7 km/h (2 Bft) 97,87 %
16.06.2019 18:38 24,3 C 23,9 C 22,2 C 58 % 1020,1 hPa 0,0 l/m 2 min 0 min 438 W/m 16,1 km/h (3 Bft) 97,87 %
16.06.2019 18:36 24,3 C 24,4 C 22,2 C 58 % 1020,1 hPa 0,0 l/m 2 min 0 min 444 W/m 9,7 km/h (2 Bft) 97,87 %
16.06.2019 18:34 24,2 C 23,9 C 22,2 C 58 % 1020,1 hPa 0,0 l/m 2 min 0 min 472 W/m 9,7 km/h (2 Bft) 95,65 %
16.06.2019 18:32 24,2 C 23,3 C 22,2 C 57 % 1020,1 hPa 0,0 l/m 2 min 0 min 482 W/m 12,9 km/h (3 Bft) 97,87 %
16.06.2019 18:30 24,2 C 23,3 C 22,2 C 58 % 1020,1 hPa 0,0 l/m 2 min 0 min 480 W/m 9,7 km/h (2 Bft) 97,87 %
16.06.2019 18:28 24,2 C 23,3 C 22,2 C 56 % 1020,1 hPa 0,0 l/m 2 min 0 min 476 W/m 9,7 km/h (2 Bft) 97,87 %
16.06.2019 18:26 24,2 C 23,3 C 22,2 C 57 % 1020,1 hPa 0,0 l/m 2 min 0 min 479 W/m 12,9 km/h (3 Bft) 97,87 %
16.06.2019 18:24 24,2 C 23,3 C 22,2 C 57 % 1020,1 hPa 0,0 l/m 2 min 0 min 485 W/m 9,7 km/h (2 Bft) 97,87 %
16.06.2019 18:22 24,2 C 23,3 C 22,2 C 56 % 1020,1 hPa 0,0 l/m 2 min 0 min 491 W/m 16,1 km/h (3 Bft) 97,78 %
16.06.2019 18:20 24,2 C 23,3 C 22,2 C 57 % 1020,1 hPa 0,0 l/m 2 min 0 min 496 W/m 19,3 km/h (3 Bft) 97,87 %
16.06.2019 18:18 24,2 C 23,3 C 22,2 C 58 % 1020,1 hPa 0,0 l/m 2 min 0 min 498 W/m 12,9 km/h (3 Bft) 97,87 %
16.06.2019 18:16 24,1 C 23,9 C 22,2 C 58 % 1020,0 hPa 0,0 l/m 2 min 0 min 505 W/m 12,9 km/h (3 Bft) 100,00 %
16.06.2019 18:14 24,1 C 23,3 C 22,2 C 57 % 1020,1 hPa 0,0 l/m 2 min 0 min 514 W/m 12,9 km/h (3 Bft) 97,87 %
16.06.2019 18:12 24,1 C 23,3 C 22,8 C 58 % 1020,1 hPa 0,0 l/m 2 min 0 min 515 W/m 9,7 km/h (2 Bft) 97,87 %
16.06.2019 18:10 24,1 C 23,3 C 22,2 C 58 % 1020,1 hPa 0,0 l/m 2 min 0 min 519 W/m 9,7 km/h (2 Bft) 97,83 %
16.06.2019 18:08 24,1 C 23,9 C 22,2 C 58 % 1020,2 hPa 0,0 l/m 4 min 0 min 539 W/m 16,1 km/h (3 Bft) 100,00 %
16.06.2019 18:04 24,0 C 23,3 C 22,8 C 57 % 1020,1 hPa 0,0 l/m 2 min 0 min 562 W/m 9,7 km/h (2 Bft) 100,00 %
16.06.2019 18:02 24,0 C 23,3 C 22,8 C 58 % 1020,1 hPa 0,0 l/m 2 min 0 min 576 W/m 9,7 km/h (2 Bft) 100,00 %
16.06.2019 18:00 24,0 C 23,3 C 22,8 C 59 % 1020,1 hPa 0,0 l/m 2 min 0 min 564 W/m 6,4 km/h (2 Bft) 100,00 %
16.06.2019 17:58 24,0 C 23,9 C 22,8 C 58 % 1020,1 hPa 0,0 l/m 2 min 0 min 592 W/m 16,1 km/h (3 Bft) 100,00 %
16.06.2019 17:56 23,9 C 23,9 C 23,3 C 59 % 1020,0 hPa 0,0 l/m 2 min 0 min 516 W/m 22,5 km/h (4 Bft) 100,00 %
16.06.2019 17:54 23,9 C 23,9 C 22,8 C 58 % 1020,1 hPa 0,0 l/m 2 min 0 min 634 W/m 9,7 km/h (2 Bft) 97,87 %
16.06.2019 17:52 23,9 C 23,3 C 22,8 C 57 % 1020,1 hPa 0,0 l/m 2 min 0 min 666 W/m 16,1 km/h (3 Bft) 100,00 %
16.06.2019 17:50 23,9 C 23,3 C 22,8 C 57 % 1020,1 hPa 0,0 l/m 2 min 0 min 668 W/m 19,3 km/h (3 Bft) 100,00 %
16.06.2019 17:48 23,9 C 23,3 C 22,2 C 58 % 1020,1 hPa 0,0 l/m 2 min 0 min 653 W/m 9,7 km/h (2 Bft) 100,00 %
16.06.2019 17:46 23,9 C 22,8 C 22,2 C 58 % 1020,0 hPa 0,0 l/m 2 min 0 min 654 W/m 22,5 km/h (4 Bft) 100,00 %
16.06.2019 17:44 23,9 C 22,8 C 22,2 C 58 % 1020,1 hPa 0,0 l/m 2 min 0 min 348 W/m 16,1 km/h (3 Bft) 97,87 %
16.06.2019 17:42 23,9 C 22,8 C 22,2 C 58 % 1020,1 hPa 0,0 l/m 2 min 0 min 327 W/m 16,1 km/h (3 Bft) 100,00 %
16.06.2019 17:40 23,9 C 23,3 C 22,2 C 58 % 1020,0 hPa 0,0 l/m 2 min 0 min 696 W/m 19,3 km/h (3 Bft) 100,00 %
16.06.2019 17:38 23,9 C 23,3 C 22,2 C 57 % 1020,1 hPa 0,0 l/m 2 min 0 min 642 W/m 12,9 km/h (3 Bft) 100,00 %
16.06.2019 17:36 23,9 C 22,8 C 22,2 C 59 % 1020,1 hPa 0,0 l/m 0 min 0 min 230 W/m 9,7 km/h (2 Bft) 100,00 %
16.06.2019 17:34 23,9 C 23,3 C 22,2 C 61 % 1020,1 hPa 0,0 l/m 2 min 0 min 651 W/m 9,7 km/h (2 Bft) 100,00 %
16.06.2019 17:32 23,9 C 22,8 C 22,2 C 61 % 1020,0 hPa 0,0 l/m 0 min 0 min 206 W/m 6,4 km/h (2 Bft) 100,00 %
16.06.2019 17:30 23,9 C 22,8 C 22,2 C 61 % 1020,1 hPa 0,0 l/m 0 min 0 min 140 W/m 9,7 km/h (2 Bft) 100,00 %
16.06.2019 17:28 23,9 C 23,3 C 22,2 C 62 % 1020,1 hPa 0,0 l/m 2 min 0 min 378 W/m 9,7 km/h (2 Bft) 100,00 %
16.06.2019 17:26 23,9 C 23,3 C 22,8 C 61 % 1020,1 hPa 0,0 l/m 2 min 0 min 658 W/m 16,1 km/h (3 Bft) 100,00 %
16.06.2019 17:24 23,8 C 23,3 C 22,8 C 61 % 1020,1 hPa 0,0 l/m 2 min 0 min 650 W/m 12,9 km/h (3 Bft) 97,83 %
16.06.2019 17:22 23,8 C 23,3 C 22,8 C 62 % 1020,1 hPa 0,0 l/m 2 min 0 min 650 W/m 6,4 km/h (2 Bft) 100,00 %
16.06.2019 17:20 23,7 C 23,3 C 22,2 C 61 % 1020,1 hPa 0,0 l/m 2 min 0 min 656 W/m 12,9 km/h (3 Bft) 100,00 %
16.06.2019 17:18 23,7 C 23,3 C 22,8 C 61 % 1020,1 hPa 0,0 l/m 2 min 0 min 668 W/m 9,7 km/h (2 Bft) 100,00 %
16.06.2019 17:16 23,6 C 23,3 C 22,8 C 62 % 1020,1 hPa 0,0 l/m 2 min 0 min 682 W/m 16,1 km/h (3 Bft) 95,74 %
16.06.2019 17:14 23,6 C 22,8 C 22,2 C 61 % 1020,1 hPa 0,0 l/m 2 min 0 min 689 W/m 12,9 km/h (3 Bft) 100,00 %
16.06.2019 17:12 23,5 C 23,3 C 22,2 C 61 % 1020,2 hPa 0,0 l/m 2 min 0 min 681 W/m 22,5 km/h (4 Bft) 100,00 %
16.06.2019 17:10 23,4 C 23,3 C 22,2 C 61 % 1020,2 hPa 0,0 l/m 2 min 0 min 693 W/m 16,1 km/h (3 Bft) 100,00 %
16.06.2019 17:08 23,4 C 23,3 C 22,2 C 63 % 1020,1 hPa 0,0 l/m 2 min 0 min 719 W/m 12,9 km/h (3 Bft) 100,00 %
16.06.2019 17:06 23,3 C 23,3 C 22,2 C 63 % 1020,1 hPa 0,0 l/m 2 min 0 min 717 W/m 12,9 km/h (3 Bft) 97,87 %
16.06.2019 17:04 23,3 C 23,3 C 22,2 C 62 % 1020,1 hPa 0,0 l/m 2 min 0 min 715 W/m 19,3 km/h (3 Bft) 97,87 %
16.06.2019 17:02 23,2 C 23,3 C 22,2 C 64 % 1020,2 hPa 0,0 l/m 2 min 0 min 752 W/m 16,1 km/h (3 Bft) 97,87 %
16.06.2019 17:00 23,1 C 23,3 C 22,2 C 65 % 1020,1 hPa 0,0 l/m 2 min 0 min 763 W/m 12,9 km/h (3 Bft) 97,83 %
16.06.2019 16:58 23,1 C 22,8 C 21,7 C 65 % 1020,1 hPa 0,0 l/m 2 min 0 min 730 W/m 9,7 km/h (2 Bft) 97,87 %
16.06.2019 16:56 23,1 C 22,2 C 21,1 C 64 % 1020,2 hPa 0,0 l/m 0 min 0 min 148 W/m 12,9 km/h (3 Bft) 97,87 %
16.06.2019 16:54 23,0 C 22,8 C 21,7 C 64 % 1020,1 hPa 0,0 l/m 0 min 0 min 146 W/m 9,7 km/h (2 Bft) 95,74 %
16.06.2019 16:52 23,0 C 23,3 C 22,2 C 66 % 1020,1 hPa 0,0 l/m 2 min 0 min 677 W/m 9,7 km/h (2 Bft) 97,87 %
16.06.2019 16:50 22,8 C 23,3 C 22,2 C 67 % 1020,1 hPa 0,0 l/m 2 min 0 min 770 W/m 9,7 km/h (2 Bft) 97,83 %
16.06.2019 16:48 22,7 C 23,3 C 22,2 C 67 % 1020,0 hPa 0,0 l/m 2 min 0 min 758 W/m 9,7 km/h (2 Bft) 93,62 %
16.06.2019 16:46 22,6 C 23,3 C 21,7 C 67 % 1020,1 hPa 0,0 l/m 2 min 0 min 774 W/m 6,4 km/h (2 Bft) 97,87 %
16.06.2019 16:44 22,5 C 22,8 C 21,7 C 68 % 1020,1 hPa 0,0 l/m 2 min 0 min 623 W/m 6,4 km/h (2 Bft) 95,74 %
16.06.2019 16:42 22,4 C 22,8 C 21,1 C 67 % 1020,1 hPa 0,0 l/m 0 min 0 min 236 W/m 6,4 km/h (2 Bft) 97,87 %
16.06.2019 16:40 22,4 C 22,2 C 21,7 C 66 % 1020,1 hPa 0,0 l/m 2 min 0 min 455 W/m 6,4 km/h (2 Bft) 95,74 %
16.06.2019 16:38 22,3 C 22,2 C 21,7 C 67 % 1020,2 hPa 0,0 l/m 2 min 0 min 542 W/m 16,1 km/h (3 Bft) 97,87 %
16.06.2019 16:36 22,3 C 22,2 C 21,7 C 66 % 1020,1 hPa 0,0 l/m 0 min 0 min 335 W/m 6,4 km/h (2 Bft) 95,65 %
16.06.2019 16:34 22,3 C 22,2 C 21,7 C 66 % 1020,2 hPa 0,0 l/m 0 min 0 min 303 W/m 12,9 km/h (3 Bft) 95,74 %
16.06.2019 16:32 22,2 C 22,2 C 21,7 C 66 % 1020,2 hPa 0,0 l/m 2 min 0 min 424 W/m 19,3 km/h (3 Bft) 91,49 %
16.06.2019 16:30 22,2 C 22,2 C 21,7 C 65 % 1020,3 hPa 0,0 l/m 0 min 0 min 359 W/m 9,7 km/h (2 Bft) 93,62 %
16.06.2019 16:28 22,2 C 22,8 C 21,7 C 66 % 1020,3 hPa 0,0 l/m 0 min 0 min 343 W/m 9,7 km/h (2 Bft) 97,87 %
16.06.2019 16:26 22,2 C 22,8 C 22,2 C 66 % 1020,4 hPa 0,0 l/m 2 min 0 min 404 W/m 6,4 km/h (2 Bft) 95,65 %
16.06.2019 16:24 22,1 C 22,8 C 22,2 C 66 % 1020,4 hPa 0,0 l/m 2 min 0 min 406 W/m 16,1 km/h (3 Bft) 97,87 %
16.06.2019 16:22 22,1 C 23,3 C 22,2 C 67 % 1020,4 hPa 0,0 l/m 2 min 0 min 655 W/m 16,1 km/h (3 Bft) 97,87 %
16.06.2019 16:20 22,1 C 23,3 C 22,2 C 68 % 1020,4 hPa 0,0 l/m 2 min 0 min 440 W/m 6,4 km/h (2 Bft) 97,87 %
16.06.2019 16:18 22,0 C 23,3 C 22,2 C 67 % 1020,4 hPa 0,0 l/m 2 min 0 min 437 W/m 9,7 km/h (2 Bft) 97,87 %
16.06.2019 16:16 21,9 C 22,8 C 21,7 C 67 % 1020,4 hPa 0,0 l/m 2 min 0 min 394 W/m 6,4 km/h (2 Bft) 97,87 %
16.06.2019 16:14 21,9 C 22,2 C 21,7 C 65 % 1020,4 hPa 0,0 l/m 0 min 0 min 347 W/m 9,7 km/h (2 Bft) 97,83 %
16.06.2019 16:12 21,9 C 22,2 C 21,7 C 66 % 1020,4 hPa 0,0 l/m 0 min 0 min 316 W/m 19,3 km/h (3 Bft) 97,87 %
16.06.2019 16:10 21,9 C 22,2 C 21,7 C 66 % 1020,4 hPa 0,0 l/m 0 min 0 min 298 W/m 9,7 km/h (2 Bft) 95,74 %
16.06.2019 16:08 21,9 C 22,2 C 21,7 C 66 % 1020,3 hPa 0,0 l/m 0 min 0 min 309 W/m 12,9 km/h (3 Bft) 97,87 %
16.06.2019 16:06 21,9 C 22,2 C 21,7 C 66 % 1020,3 hPa 0,0 l/m 0 min 0 min 372 W/m 12,9 km/h (3 Bft) 97,87 %
16.06.2019 16:04 21,9 C 22,8 C 21,7 C 66 % 1020,4 hPa 0,0 l/m 0 min 0 min 337 W/m 9,7 km/h (2 Bft) 97,87 %
16.06.2019 16:02 21,9 C 22,2 C 21,7 C 65 % 1020,3 hPa 0,0 l/m 0 min 0 min 360 W/m 16,1 km/h (3 Bft) 93,48 %
16.06.2019 16:00 21,9 C 22,2 C 21,7 C 65 % 1020,4 hPa 0,0 l/m 2 min 0 min 401 W/m 19,3 km/h (3 Bft) 95,74 %
16.06.2019 15:58 21,9 C 22,8 C 22,2 C 65 % 1020,4 hPa 0,0 l/m 0 min 0 min 393 W/m 6,4 km/h (2 Bft) 95,74 %
16.06.2019 15:56 21,9 C 22,2 C 21,7 C 65 % 1020,4 hPa 0,0 l/m 0 min 0 min 336 W/m 9,7 km/h (2 Bft) 95,74 %
16.06.2019 15:54 22,0 C 22,2 C 21,7 C 66 % 1020,4 hPa 0,0 l/m 0 min 0 min 293 W/m 12,9 km/h (3 Bft) 95,74 %
16.06.2019 15:52 22,0 C 22,8 C 22,2 C 66 % 1020,3 hPa 0,0 l/m 0 min 0 min 283 W/m 16,1 km/h (3 Bft) 95,74 %
16.06.2019 15:50 22,0 C 22,8 C 22,2 C 66 % 1020,3 hPa 0,0 l/m 0 min 0 min 289 W/m 12,9 km/h (3 Bft) 97,83 %
16.06.2019 15:48 22,0 C 22,8 C 22,2 C 66 % 1020,3 hPa 0,0 l/m 0 min 0 min 343 W/m 16,1 km/h (3 Bft) 95,74 %
16.06.2019 15:46 21,9 C 22,8 C 22,2 C 66 % 1020,3 hPa 0,0 l/m 0 min 0 min 369 W/m 12,9 km/h (3 Bft) 95,74 %
16.06.2019 15:44 21,9 C 23,3 C 22,2 C 68 % 1020,3 hPa 0,0 l/m 0 min 0 min 394 W/m 16,1 km/h (3 Bft) 97,87 %
16.06.2019 15:42 21,9 C 22,8 C 22,2 C 67 % 1020,4 hPa 0,0 l/m 0 min 0 min 368 W/m 6,4 km/h (2 Bft) 97,92 %
16.06.2019 15:40 21,8 C 22,8 C 22,2 C 66 % 1020,4 hPa 0,0 l/m 0 min 0 min 357 W/m 9,7 km/h (2 Bft) 97,87 %
16.06.2019 15:38 21,8 C 22,2 C 22,2 C 65 % 1020,3 hPa 0,0 l/m 0 min 0 min 343 W/m 9,7 km/h (2 Bft) 97,92 %
16.06.2019 15:36 21,8 C 22,2 C 21,7 C 65 % 1020,4 hPa 0,0 l/m 0 min 0 min 321 W/m 9,7 km/h (2 Bft) 97,92 %
16.06.2019 15:34 21,9 C 22,2 C 21,7 C 65 % 1020,3 hPa 0,0 l/m 0 min 0 min 318 W/m 9,7 km/h (2 Bft) 97,62 %
16.06.2019 15:32 22,0 C 21,7 C 21,7 C 63 % 1020,4 hPa 0,0 l/m 0 min 0 min 307 W/m 16,1 km/h (3 Bft) 95,65 %
16.06.2019 15:30 22,1 C 21,7 C 21,7 C 64 % 1020,4 hPa 0,0 l/m 0 min 0 min 274 W/m 12,9 km/h (3 Bft) 95,74 %
16.06.2019 15:28 22,2 C 21,7 C 21,7 C 63 % 1020,3 hPa 0,0 l/m 0 min 0 min 244 W/m 16,1 km/h (3 Bft) 97,92 %
16.06.2019 15:26 22,3 C 21,7 C 21,7 C 63 % 1020,4 hPa 0,0 l/m 0 min 0 min 225 W/m 12,9 km/h (3 Bft) 97,87 %
16.06.2019 15:24 22,4 C 22,2 C 22,2 C 63 % 1020,4 hPa 0,0 l/m 0 min 0 min 224 W/m 16,1 km/h (3 Bft) 97,87 %
16.06.2019 15:22 22,6 C 22,2 C 22,2 C 64 % 1020,3 hPa 0,0 l/m 0 min 0 min 251 W/m 16,1 km/h (3 Bft) 97,87 %
16.06.2019 15:20 22,7 C 22,2 C 22,8 C 62 % 1020,3 hPa 0,0 l/m 0 min 0 min 295 W/m 12,9 km/h (3 Bft) 97,92 %
16.06.2019 15:18 22,8 C 22,8 C 22,8 C 62 % 1020,3 hPa 0,0 l/m 0 min 0 min 359 W/m 9,7 km/h (2 Bft) 97,92 %
16.06.2019 15:16 22,9 C 22,8 C 23,3 C 62 % 1020,2 hPa 0,0 l/m 2 min 0 min 461 W/m 16,1 km/h (3 Bft) 97,87 %
16.06.2019 15:14 23,1 C 23,3 C 23,3 C 63 % 1020,2 hPa 0,0 l/m 0 min 0 min 399 W/m 16,1 km/h (3 Bft) 97,92 %
16.06.2019 15:12 23,2 C 23,9 C 23,3 C 62 % 1020,3 hPa 0,0 l/m 0 min 0 min 408 W/m 19,3 km/h (3 Bft) 95,83 %
16.06.2019 15:10 23,3 C 23,9 C 23,3 C 62 % 1020,3 hPa 0,0 l/m 2 min 0 min 432 W/m 16,1 km/h (3 Bft) 97,62 %
16.06.2019 15:08 23,4 C 25,0 C 24,4 C 62 % 1020,1 hPa 0,0 l/m 2 min 0 min 469 W/m 9,7 km/h (2 Bft) 97,83 %
16.06.2019 15:06 23,5 C 23,9 C 23,9 C 60 % 1020,2 hPa 0,0 l/m 2 min 0 min 469 W/m 16,1 km/h (3 Bft) 97,87 %
16.06.2019 15:04 23,6 C 23,9 C 23,9 C 63 % 1020,1 hPa 0,0 l/m 2 min 0 min 444 W/m 9,7 km/h (2 Bft) 97,87 %
16.06.2019 15:02 23,7 C 23,3 C 23,3 C 60 % 1020,0 hPa 0,0 l/m 2 min 0 min 455 W/m 16,1 km/h (3 Bft) 97,87 %
16.06.2019 15:00 23,8 C 24,4 C 23,9 C 60 % 1020,1 hPa 0,0 l/m 2 min 0 min 546 W/m 12,9 km/h (3 Bft) 97,87 %
16.06.2019 14:58 23,9 C 23,9 C 23,3 C 59 % 1020,2 hPa 0,0 l/m 2 min 0 min 529 W/m 12,9 km/h (3 Bft) 97,96 %
16.06.2019 14:56 24,1 C 23,9 C 23,3 C 59 % 1020,0 hPa 0,0 l/m 2 min 0 min 458 W/m 22,5 km/h (4 Bft) 100,00 %
16.06.2019 14:54 24,2 C 24,4 C 24,4 C 58 % 1020,1 hPa 0,0 l/m 2 min 0 min 454 W/m 12,9 km/h (3 Bft) 100,00 %
16.06.2019 14:52 24,3 C 25,0 C 24,4 C 59 % 1020,0 hPa 0,0 l/m 2 min 0 min 466 W/m 19,3 km/h (3 Bft) 100,00 %
16.06.2019 14:50 24,4 C 25,6 C 25,6 C 59 % 1020,0 hPa 0,0 l/m 0 min 0 min 438 W/m 12,9 km/h (3 Bft) 95,74 %
16.06.2019 14:48 24,4 C 27,2 C 26,7 C 58 % 1020,0 hPa 0,0 l/m 2 min 0 min 795 W/m 19,3 km/h (3 Bft) 95,74 %
16.06.2019 14:46 24,3 C 28,9 C 27,8 C 61 % 1020,0 hPa 0,0 l/m 2 min 0 min 898 W/m 9,7 km/h (2 Bft) 97,92 %
16.06.2019 14:44 24,2 C 28,9 C 28,3 C 61 % 1019,9 hPa 0,0 l/m 2 min 0 min 932 W/m 6,4 km/h (2 Bft) 100,00 %
16.06.2019 14:42 24,1 C 28,3 C 28,9 C 59 % 1019,9 hPa 0,0 l/m 2 min 0 min 932 W/m 9,7 km/h (2 Bft) 100,00 %
16.06.2019 14:40 24,1 C 28,3 C 30,0 C 59 % 1019,9 hPa 0,0 l/m 2 min 0 min 932 W/m 12,9 km/h (3 Bft) 95,74 %
16.06.2019 14:38 24,0 C 27,8 C 30,0 C 57 % 1019,9 hPa 0,0 l/m 2 min 0 min 975 W/m 12,9 km/h (3 Bft) 100,00 %
16.06.2019 14:36 23,9 C 28,3 C 30,6 C 58 % 1020,0 hPa 0,0 l/m 2 min 0 min 1040 W/m 12,9 km/h (3 Bft) 100,00 %
16.06.2019 14:34 23,9 C 27,8 C 30,0 C 57 % 1020,0 hPa 0,0 l/m 2 min 0 min 999 W/m 12,9 km/h (3 Bft) 100,00 %
16.06.2019 14:32 23,9 C 28,3 C 31,1 C 58 % 1020,0 hPa 0,0 l/m 2 min 0 min 994 W/m 9,7 km/h (2 Bft) 97,92 %
16.06.2019 14:30 23,9 C 28,3 C 31,1 C 57 % 1020,0 hPa 0,0 l/m 2 min 0 min 998 W/m 12,9 km/h (3 Bft) 95,83 %
16.06.2019 14:28 23,9 C 28,3 C 31,1 C 57 % 1020,0 hPa 0,0 l/m 2 min 0 min 998 W/m 22,5 km/h (4 Bft) 97,87 %
16.06.2019 14:26 23,9 C 28,3 C 30,6 C 59 % 1020,0 hPa 0,0 l/m 2 min 0 min 997 W/m 19,3 km/h (3 Bft) 95,83 %
16.06.2019 14:24 23,9 C 27,2 C 30,0 C 60 % 1020,1 hPa 0,0 l/m 2 min 0 min 989 W/m 19,3 km/h (3 Bft) 97,92 %
16.06.2019 14:22 23,9 C 26,7 C 29,4 C 58 % 1020,1 hPa 0,0 l/m 2 min 0 min 986 W/m 19,3 km/h (3 Bft) 95,83 %
16.06.2019 14:20 23,9 C 28,3 C 31,1 C 60 % 1020,1 hPa 0,0 l/m 2 min 0 min 989 W/m 16,1 km/h (3 Bft) 95,12 %
16.06.2019 14:18 23,8 C 28,3 C 30,6 C 60 % 1020,0 hPa 0,0 l/m 2 min 0 min 995 W/m 19,3 km/h (3 Bft) 97,87 %
16.06.2019 14:16 23,8 C 27,8 C 30,6 C 60 % 1020,1 hPa 0,0 l/m 2 min 0 min 1010 W/m 12,9 km/h (3 Bft) 97,87 %
16.06.2019 14:14 23,8 C 27,2 C 29,4 C 61 % 1020,1 hPa 0,0 l/m 2 min 0 min 1023 W/m 12,9 km/h (3 Bft) 97,87 %
16.06.2019 14:12 23,8 C 26,7 C 28,3 C 60 % 1020,0 hPa 0,0 l/m 2 min 0 min 1020 W/m 16,1 km/h (3 Bft) 93,62 %
16.06.2019 14:10 23,8 C 26,1 C 28,3 C 60 % 1020,0 hPa 0,0 l/m 2 min 0 min 1020 W/m 22,5 km/h (4 Bft) 95,65 %
16.06.2019 14:08 23,8 C 27,2 C 29,4 C 59 % 1020,1 hPa 0,0 l/m 2 min 0 min 1014 W/m 16,1 km/h (3 Bft) 97,87 %
16.06.2019 14:06 23,9 C 26,1 C 28,3 C 59 % 1020,0 hPa 0,0 l/m 2 min 0 min 1027 W/m 16,1 km/h (3 Bft) 97,87 %
16.06.2019 14:04 23,9 C 28,3 C 30,6 C 60 % 1020,0 hPa 0,0 l/m 2 min 0 min 1012 W/m 12,9 km/h (3 Bft) 97,96 %
16.06.2019 14:02 23,8 C 28,9 C 30,6 C 59 % 1020,0 hPa 0,0 l/m 2 min 0 min 1007 W/m 16,1 km/h (3 Bft) 98,00 %
16.06.2019 14:00 23,8 C 28,3 C 31,1 C 58 % 1020,1 hPa 0,0 l/m 2 min 0 min 1003 W/m 12,9 km/h (3 Bft) 97,62 %
16.06.2019 13:58 23,7 C 28,3 C 31,1 C 59 % 1020,1 hPa 0,0 l/m 2 min 0 min 995 W/m 12,9 km/h (3 Bft) 97,83 %
16.06.2019 13:56 23,6 C 28,3 C 31,1 C 60 % 1020,0 hPa 0,0 l/m 2 min 0 min 996 W/m 19,3 km/h (3 Bft) 97,87 %
16.06.2019 13:54 23,6 C 28,3 C 31,1 C 62 % 1020,0 hPa 0,0 l/m 2 min 0 min 997 W/m 9,7 km/h (2 Bft) 93,62 %
16.06.2019 13:52 23,4 C 28,3 C 30,6 C 62 % 1020,0 hPa 0,0 l/m 2 min 0 min 1012 W/m 12,9 km/h (3 Bft) 100,00 %
16.06.2019 13:50 23,3 C 28,3 C 30,0 C 62 % 1020,0 hPa 0,0 l/m 2 min 0 min 1066 W/m 19,3 km/h (3 Bft) 100,00 %
16.06.2019 13:48 23,2 C 28,3 C 30,6 C 63 % 1020,0 hPa 0,0 l/m 2 min 0 min 1060 W/m 9,7 km/h (2 Bft) 97,92 %
16.06.2019 13:46 23,1 C 27,8 C 30,0 C 64 % 1020,1 hPa 0,0 l/m 2 min 0 min 1090 W/m 9,7 km/h (2 Bft) 100,00 %
16.06.2019 13:44 23,0 C 26,7 C 27,8 C 63 % 1020,1 hPa 0,0 l/m 2 min 0 min 1120 W/m 16,1 km/h (3 Bft) 100,00 %
16.06.2019 13:42 22,9 C 26,1 C 27,8 C 64 % 1020,1 hPa 0,0 l/m 2 min 0 min 471 W/m 12,9 km/h (3 Bft) 97,87 %
16.06.2019 13:40 22,9 C 26,1 C 27,8 C 63 % 1020,2 hPa 0,0 l/m 2 min 0 min 993 W/m 22,5 km/h (4 Bft) 97,92 %
16.06.2019 13:38 22,8 C 26,7 C 28,3 C 63 % 1020,1 hPa 0,0 l/m 2 min 0 min 959 W/m 9,7 km/h (2 Bft) 97,92 %
16.06.2019 13:36 22,7 C 26,1 C 26,7 C 64 % 1020,1 hPa 0,0 l/m 0 min 0 min 178 W/m 12,9 km/h (3 Bft) 100,00 %
16.06.2019 13:34 22,7 C 25,0 C 25,6 C 63 % 1020,1 hPa 0,0 l/m 2 min 0 min 597 W/m 9,7 km/h (2 Bft) 100,00 %
16.06.2019 13:32 22,7 C 27,2 C 28,3 C 63 % 1020,2 hPa 0,0 l/m 2 min 0 min 1155 W/m 9,7 km/h (2 Bft) 97,87 %
16.06.2019 13:30 22,6 C 28,9 C 29,4 C 65 % 1020,4 hPa 0,0 l/m 2 min 0 min 1121 W/m 12,9 km/h (3 Bft) 97,87 %
16.06.2019 13:28 22,5 C 27,2 C 27,2 C 65 % 1020,4 hPa 0,0 l/m 2 min 0 min 469 W/m 12,9 km/h (3 Bft) 95,74 %
16.06.2019 13:26 22,5 C 24,4 C 25,0 C 66 % 1020,3 hPa 0,0 l/m 2 min 0 min 527 W/m 19,3 km/h (3 Bft) 95,74 %
16.06.2019 13:24 22,4 C 25,0 C 25,6 C 64 % 1020,4 hPa 0,0 l/m 2 min 0 min 826 W/m 9,7 km/h (2 Bft) 97,87 %
16.06.2019 13:22 22,4 C 22,2 C 22,8 C 63 % 1020,3 hPa 0,0 l/m 0 min 0 min 204 W/m 16,1 km/h (3 Bft) 97,92 %
16.06.2019 13:20 22,6 C 23,3 C 23,9 C 63 % 1020,3 hPa 0,0 l/m 0 min 0 min 299 W/m 16,1 km/h (3 Bft) 95,74 %
16.06.2019 13:18 22,6 C 25,0 C 25,6 C 63 % 1020,3 hPa 0,0 l/m 0 min 0 min 367 W/m 19,3 km/h (3 Bft) 97,92 %
16.06.2019 13:16 22,6 C 25,0 C 25,6 C 64 % 1020,1 hPa 0,0 l/m 0 min 0 min 282 W/m 19,3 km/h (3 Bft) 97,92 %
16.06.2019 13:14 22,6 C 25,0 C 25,0 C 63 % 1020,1 hPa 0,0 l/m 0 min 0 min 273 W/m 16,1 km/h (3 Bft) 97,92 %
16.06.2019 13:12 22,6 C 25,0 C 25,6 C 63 % 1020,2 hPa 0,0 l/m 0 min 0 min 290 W/m 16,1 km/h (3 Bft) 97,87 %
16.06.2019 13:10 22,6 C 25,6 C 26,1 C 62 % 1020,2 hPa 0,0 l/m 2 min 0 min 1052 W/m 16,1 km/h (3 Bft) 97,87 %
16.06.2019 13:08 22,5 C 26,7 C 27,2 C 64 % 1020,1 hPa 0,0 l/m 2 min 0 min 1118 W/m 16,1 km/h (3 Bft) 97,83 %
16.06.2019 13:06 22,4 C 27,2 C 28,3 C 64 % 1020,2 hPa 0,0 l/m 2 min 0 min 846 W/m 9,7 km/h (2 Bft) 97,87 %
16.06.2019 13:04 22,3 C 25,6 C 26,1 C 63 % 1020,3 hPa 0,0 l/m 0 min 0 min 362 W/m 16,1 km/h (3 Bft) 97,87 %
16.06.2019 13:02 22,3 C 23,9 C 24,4 C 62 % 1020,3 hPa 0,0 l/m 2 min 0 min 527 W/m 19,3 km/h (3 Bft) 97,62 %
16.06.2019 13:00 22,3 C 26,1 C 26,7 C 63 % 1020,3 hPa 0,0 l/m 2 min 0 min 1192 W/m 22,5 km/h (4 Bft) 97,83 %
16.06.2019 12:58 22,3 C 26,7 C 27,2 C 63 % 1020,3 hPa 0,0 l/m 2 min 0 min 880 W/m 22,5 km/h (4 Bft) 97,92 %
16.06.2019 12:56 22,3 C 24,4 C 24,4 C 62 % 1020,3 hPa 0,0 l/m 2 min 0 min 544 W/m 16,1 km/h (3 Bft) 97,87 %
16.06.2019 12:54 22,3 C 22,8 C 22,2 C 62 % 1020,4 hPa 0,0 l/m 0 min 0 min 340 W/m 16,1 km/h (3 Bft) 97,92 %
16.06.2019 12:52 22,5 C 22,2 C 22,2 C 64 % 1020,4 hPa 0,0 l/m 0 min 0 min 296 W/m 22,5 km/h (4 Bft) 100,00 %
16.06.2019 12:50 22,6 C 22,2 C 22,2 C 63 % 1020,4 hPa 0,0 l/m 0 min 0 min 240 W/m 19,3 km/h (3 Bft) 97,87 %
16.06.2019 12:48 22,7 C 22,8 C 22,8 C 63 % 1020,3 hPa 0,0 l/m 0 min 0 min 202 W/m 12,9 km/h (3 Bft) 97,92 %
16.06.2019 12:46 22,8 C 23,9 C 24,4 C 63 % 1020,3 hPa 0,0 l/m 0 min 0 min 324 W/m 16,1 km/h (3 Bft) 93,75 %
16.06.2019 12:44 22,8 C 25,0 C 25,6 C 63 % 1020,3 hPa 0,0 l/m 0 min 0 min 425 W/m 12,9 km/h (3 Bft) 97,87 %
16.06.2019 12:42 22,7 C 25,6 C 26,7 C 63 % 1020,3 hPa 0,0 l/m 2 min 0 min 1023 W/m 25,7 km/h (4 Bft) 97,62 %
16.06.2019 12:40 22,7 C 28,3 C 30,0 C 62 % 1020,2 hPa 0,0 l/m 2 min 0 min 1158 W/m 22,5 km/h (4 Bft) 97,87 %
16.06.2019 12:38 22,5 C 27,8 C 29,4 C 62 % 1020,2 hPa 0,0 l/m 2 min 0 min 1123 W/m 32,2 km/h (5 Bft) 100,00 %
16.06.2019 12:36 22,4 C 27,8 C 28,9 C 63 % 1020,2 hPa 0,0 l/m 2 min 0 min 1111 W/m 16,1 km/h (3 Bft) 100,00 %
16.06.2019 12:34 22,3 C 27,2 C 27,8 C 64 % 1020,2 hPa 0,0 l/m 2 min 0 min 1066 W/m 19,3 km/h (3 Bft) 100,00 %
16.06.2019 12:32 22,3 C 25,6 C 26,1 C 62 % 1020,3 hPa 0,0 l/m 2 min 0 min 843 W/m 25,7 km/h (4 Bft) 100,00 %
16.06.2019 12:30 22,3 C 25,6 C 26,1 C 62 % 1020,3 hPa 0,0 l/m 2 min 0 min 1119 W/m 29,0 km/h (5 Bft) 95,74 %
16.06.2019 12:28 22,2 C 26,1 C 26,7 C 62 % 1020,3 hPa 0,0 l/m 2 min 0 min 1117 W/m 29,0 km/h (5 Bft) 97,87 %
16.06.2019 12:26 22,2 C 26,7 C 27,2 C 62 % 1020,3 hPa 0,0 l/m 2 min 0 min 1093 W/m 35,4 km/h (5 Bft) 97,87 %
16.06.2019 12:24 22,2 C 26,7 C 27,2 C 62 % 1020,3 hPa 0,0 l/m 2 min 0 min 1060 W/m 22,5 km/h (4 Bft) 97,92 %
16.06.2019 12:22 22,2 C 25,6 C 25,6 C 62 % 1020,3 hPa 0,0 l/m 2 min 0 min 919 W/m 22,5 km/h (4 Bft) 97,92 %
16.06.2019 12:20 22,2 C 23,3 C 23,3 C 62 % 1020,3 hPa 0,0 l/m 0 min 0 min 232 W/m 22,5 km/h (4 Bft) 95,74 %
16.06.2019 12:18 22,3 C 21,7 C 21,7 C 61 % 1020,3 hPa 0,0 l/m 0 min 0 min 271 W/m 25,7 km/h (4 Bft) 95,83 %
16.06.2019 12:16 22,4 C 22,8 C 22,8 C 61 % 1020,2 hPa 0,0 l/m 0 min 0 min 325 W/m 41,8 km/h (6 Bft) 93,75 %
16.06.2019 12:14 22,6 C 24,4 C 24,4 C 62 % 1020,3 hPa 0,0 l/m 2 min 0 min 591 W/m 19,3 km/h (3 Bft) 97,56 %
16.06.2019 12:12 22,6 C 27,2 C 26,7 C 64 % 1020,3 hPa 0,0 l/m 2 min 0 min 838 W/m 22,5 km/h (4 Bft) 97,87 %
16.06.2019 12:10 22,5 C 27,2 C 27,2 C 64 % 1020,2 hPa 0,0 l/m 2 min 0 min 749 W/m 19,3 km/h (3 Bft) 97,87 %
16.06.2019 12:08 22,6 C 25,6 C 25,0 C 63 % 1020,2 hPa 0,0 l/m 4 min 0 min 440 W/m 25,7 km/h (4 Bft) 95,74 %
16.06.2019 12:04 22,6 C 23,9 C 23,9 C 62 % 1020,2 hPa 0,0 l/m 0 min 0 min 329 W/m 19,3 km/h (3 Bft) 95,83 %
16.06.2019 12:02 22,6 C 25,6 C 25,6 C 62 % 1020,1 hPa 0,0 l/m 0 min 0 min 211 W/m 16,1 km/h (3 Bft) 96,00 %
16.06.2019 12:00 22,6 C 26,7 C 27,2 C 62 % 1020,2 hPa 0,0 l/m 0 min 0 min 211 W/m 22,5 km/h (4 Bft) 95,74 %
16.06.2019 11:58 22,6 C 26,7 C 26,7 C 64 % 1020,1 hPa 0,0 l/m 2 min 0 min 720 W/m 25,7 km/h (4 Bft) 95,74 %
16.06.2019 11:56 22,5 C 28,3 C 28,3 C 64 % 1020,1 hPa 0,0 l/m 2 min 0 min 1060 W/m 9,7 km/h (2 Bft) 95,24 %
16.06.2019 11:54 22,5 C 26,1 C 27,2 C 64 % 1020,1 hPa 0,0 l/m 2 min 0 min 1058 W/m 12,9 km/h (3 Bft) 93,62 %
16.06.2019 11:52 22,5 C 26,1 C 26,7 C 65 % 1020,0 hPa 0,0 l/m 2 min 0 min 647 W/m 16,1 km/h (3 Bft) 95,74 %
16.06.2019 11:50 22,5 C 23,9 C 24,4 C 63 % 1020,1 hPa 0,0 l/m 0 min 0 min 240 W/m 9,7 km/h (2 Bft) 93,48 %
16.06.2019 11:48 22,6 C 22,8 C 23,3 C 62 % 1020,0 hPa 0,0 l/m 0 min 0 min 228 W/m 22,5 km/h (4 Bft) 95,74 %
16.06.2019 11:46 22,7 C 25,6 C 26,7 C 62 % 1019,9 hPa 0,0 l/m 2 min 0 min 1004 W/m 22,5 km/h (4 Bft) 95,74 %
16.06.2019 11:44 22,7 C 26,7 C 27,2 C 64 % 1020,0 hPa 0,0 l/m 2 min 0 min 988 W/m 29,0 km/h (5 Bft) 93,62 %
16.06.2019 11:42 22,7 C 26,7 C 27,2 C 63 % 1020,0 hPa 0,0 l/m 2 min 0 min 960 W/m 16,1 km/h (3 Bft) 93,62 %
16.06.2019 11:40 22,7 C 26,1 C 26,1 C 62 % 1020,0 hPa 0,0 l/m 2 min 0 min 960 W/m 22,5 km/h (4 Bft) 95,65 %
16.06.2019 11:38 22,8 C 27,8 C 28,9 C 64 % 1019,9 hPa 0,0 l/m 2 min 0 min 943 W/m 22,5 km/h (4 Bft) 95,74 %
16.06.2019 11:36 22,7 C 28,3 C 28,9 C 64 % 1019,9 hPa 0,0 l/m 2 min 0 min 948 W/m 22,5 km/h (4 Bft) 93,75 %
16.06.2019 11:34 22,6 C 28,9 C 28,9 C 65 % 1019,9 hPa 0,0 l/m 2 min 0 min 936 W/m 19,3 km/h (3 Bft) 95,74 %
16.06.2019 11:32 22,5 C 29,4 C 28,9 C 66 % 1019,9 hPa 0,0 l/m 2 min 0 min 900 W/m 19,3 km/h (3 Bft) 93,62 %
16.06.2019 11:30 22,4 C 27,8 C 28,3 C 65 % 1019,9 hPa 0,0 l/m 2 min 0 min 892 W/m 16,1 km/h (3 Bft) 95,74 %
16.06.2019 11:28 22,3 C 26,7 C 27,2 C 64 % 1019,9 hPa 0,0 l/m 2 min 0 min 882 W/m 19,3 km/h (3 Bft) 93,62 %
16.06.2019 11:26 22,3 C 27,2 C 27,8 C 65 % 1019,9 hPa 0,0 l/m 2 min 0 min 880 W/m 16,1 km/h (3 Bft) 95,74 %
16.06.2019 11:24 22,3 C 27,2 C 27,8 C 66 % 1019,8 hPa 0,0 l/m 2 min 0 min 886 W/m 12,9 km/h (3 Bft) 93,75 %
16.06.2019 11:22 22,2 C 26,1 C 26,7 C 65 % 1019,8 hPa 0,0 l/m 2 min 0 min 903 W/m 9,7 km/h (2 Bft) 95,74 %
16.06.2019 11:20 22,2 C 26,1 C 27,2 C 66 % 1019,8 hPa 0,0 l/m 2 min 0 min 911 W/m 22,5 km/h (4 Bft) 93,75 %
16.06.2019 11:18 22,2 C 28,3 C 29,4 C 67 % 1019,8 hPa 0,0 l/m 2 min 0 min 885 W/m 12,9 km/h (3 Bft) 100,00 %
16.06.2019 11:16 22,1 C 27,2 C 28,3 C 66 % 1019,8 hPa 0,0 l/m 2 min 0 min 877 W/m 19,3 km/h (3 Bft) 97,56 %
16.06.2019 11:14 22,0 C 26,7 C 27,8 C 67 % 1019,8 hPa 0,0 l/m 2 min 0 min 843 W/m 25,7 km/h (4 Bft) 97,87 %
16.06.2019 11:12 21,9 C 27,8 C 28,3 C 67 % 1019,7 hPa 0,0 l/m 2 min 0 min 822 W/m 6,4 km/h (2 Bft) 100,00 %
16.06.2019 11:10 21,9 C 27,2 C 27,8 C 67 % 1019,8 hPa 0,0 l/m 2 min 0 min 822 W/m 16,1 km/h (3 Bft) 97,87 %
16.06.2019 11:08 21,8 C 27,2 C 27,8 C 66 % 1019,7 hPa 0,0 l/m 2 min 0 min 819 W/m 16,1 km/h (3 Bft) 100,00 %
16.06.2019 11:06 21,8 C 27,2 C 27,8 C 67 % 1019,7 hPa 0,0 l/m 2 min 0 min 812 W/m 16,1 km/h (3 Bft) 97,87 %
16.06.2019 11:04 21,7 C 26,1 C 27,2 C 66 % 1019,7 hPa 0,0 l/m 2 min 0 min 818 W/m 16,1 km/h (3 Bft) 100,00 %
16.06.2019 11:02 21,7 C 26,1 C 26,7 C 67 % 1019,7 hPa 0,0 l/m 2 min 0 min 812 W/m 16,1 km/h (3 Bft) 100,00 %
16.06.2019 11:00 21,7 C 26,1 C 26,1 C 67 % 1019,6 hPa 0,0 l/m 0 min 0 min 353 W/m 9,7 km/h (2 Bft) 100,00 %
16.06.2019 10:58 21,7 C 25,6 C 26,1 C 66 % 1019,7 hPa 0,0 l/m 2 min 0 min 858 W/m 9,7 km/h (2 Bft) 100,00 %
16.06.2019 10:56 21,7 C 26,7 C 27,2 C 66 % 1019,7 hPa 0,0 l/m 2 min 0 min 830 W/m 19,3 km/h (3 Bft) 97,87 %
16.06.2019 10:54 21,7 C 25,6 C 26,1 C 66 % 1019,7 hPa 0,0 l/m 2 min 0 min 485 W/m 19,3 km/h (3 Bft) 97,87 %
16.06.2019 10:52 21,7 C 25,6 C 26,1 C 66 % 1019,7 hPa 0,0 l/m 0 min 0 min 253 W/m 25,7 km/h (4 Bft) 97,83 %
16.06.2019 10:50 21,7 C 26,1 C 26,1 C 69 % 1019,6 hPa 0,0 l/m 2 min 0 min 496 W/m 12,9 km/h (3 Bft) 100,00 %
16.06.2019 10:48 21,7 C 26,1 C 26,7 C 67 % 1019,6 hPa 0,0 l/m 2 min 0 min 812 W/m 16,1 km/h (3 Bft) 100,00 %
16.06.2019 10:46 21,6 C 27,2 C 27,8 C 67 % 1019,6 hPa 0,0 l/m 2 min 0 min 796 W/m 16,1 km/h (3 Bft) 93,62 %
16.06.2019 10:44 21,6 C 26,1 C 27,2 C 66 % 1019,6 hPa 0,0 l/m 2 min 0 min 793 W/m 19,3 km/h (3 Bft) 100,00 %
16.06.2019 10:42 21,6 C 25,0 C 25,6 C 65 % 1019,7 hPa 0,0 l/m 2 min 0 min 792 W/m 25,7 km/h (4 Bft) 100,00 %
16.06.2019 10:40 21,5 C 26,1 C 26,7 C 66 % 1019,6 hPa 0,0 l/m 2 min 0 min 784 W/m 25,7 km/h (4 Bft) 97,83 %
16.06.2019 10:38 21,4 C 27,8 C 27,8 C 68 % 1019,5 hPa 0,0 l/m 2 min 0 min 754 W/m 12,9 km/h (3 Bft) 97,87 %
16.06.2019 10:36 21,4 C 27,8 C 28,3 C 69 % 1019,5 hPa 0,0 l/m 2 min 0 min 746 W/m 9,7 km/h (2 Bft) 100,00 %
16.06.2019 10:34 21,3 C 27,2 C 27,8 C 67 % 1019,5 hPa 0,0 l/m 2 min 0 min 743 W/m 16,1 km/h (3 Bft) 97,92 %
16.06.2019 10:32 21,2 C 25,6 C 26,1 C 67 % 1019,5 hPa 0,0 l/m 2 min 0 min 738 W/m 19,3 km/h (3 Bft) 100,00 %
16.06.2019 10:30 21,2 C 26,1 C 26,1 C 68 % 1019,5 hPa 0,0 l/m 2 min 0 min 734 W/m 25,7 km/h (4 Bft) 100,00 %
16.06.2019 10:28 21,2 C 26,1 C 26,7 C 69 % 1019,5 hPa 0,0 l/m 2 min 0 min 745 W/m 9,7 km/h (2 Bft) 100,00 %
16.06.2019 10:26 21,3 C 24,4 C 24,4 C 67 % 1019,6 hPa 0,0 l/m 0 min 0 min 209 W/m 12,9 km/h (3 Bft) 100,00 %
16.06.2019 10:24 21,3 C 23,9 C 24,4 C 67 % 1019,6 hPa 0,0 l/m 2 min 0 min 459 W/m 16,1 km/h (3 Bft) 95,74 %
16.06.2019 10:22 21,4 C 24,4 C 25,0 C 67 % 1019,6 hPa 0,0 l/m 2 min 0 min 622 W/m 16,1 km/h (3 Bft) 97,92 %
16.06.2019 10:20 21,5 C 26,1 C 26,7 C 67 % 1019,6 hPa 0,0 l/m 2 min 0 min 708 W/m 12,9 km/h (3 Bft) 97,62 %
16.06.2019 10:18 21,4 C 26,7 C 27,2 C 66 % 1019,6 hPa 0,0 l/m 2 min 0 min 710 W/m 12,9 km/h (3 Bft) 97,83 %
16.06.2019 10:16 21,4 C 26,1 C 26,7 C 67 % 1019,6 hPa 0,0 l/m 2 min 0 min 698 W/m 9,7 km/h (2 Bft) 97,87 %
16.06.2019 10:14 21,4 C 26,1 C 26,7 C 67 % 1019,6 hPa 0,0 l/m 2 min 0 min 690 W/m 16,1 km/h (3 Bft) 97,87 %
16.06.2019 10:12 21,3 C 25,0 C 25,6 C 65 % 1019,6 hPa 0,0 l/m 2 min 0 min 686 W/m 22,5 km/h (4 Bft) 100,00 %
16.06.2019 10:10 21,4 C 25,0 C 25,6 C 66 % 1019,5 hPa 0,0 l/m 2 min 0 min 682 W/m 35,4 km/h (5 Bft) 97,87 %
16.06.2019 10:08 21,4 C 26,7 C 27,2 C 69 % 1019,5 hPa 0,0 l/m 2 min 0 min 678 W/m 19,3 km/h (3 Bft) 97,87 %
16.06.2019 10:06 21,3 C 28,3 C 28,3 C 69 % 1019,4 hPa 0,0 l/m 2 min 0 min 671 W/m 9,7 km/h (2 Bft) 97,87 %
16.06.2019 10:04 21,2 C 27,2 C 27,2 C 68 % 1019,4 hPa 0,0 l/m 2 min 0 min 666 W/m 6,4 km/h (2 Bft) 96,00 %
16.06.2019 10:02 21,2 C 27,2 C 27,2 C 68 % 1019,3 hPa 0,0 l/m 2 min 0 min 663 W/m 9,7 km/h (2 Bft) 95,35 %
16.06.2019 10:00 21,1 C 27,2 C 27,8 C 68 % 1019,3 hPa 0,0 l/m 2 min 0 min 656 W/m 9,7 km/h (2 Bft) 97,87 %
16.06.2019 09:58 21,1 C 27,8 C 27,8 C 68 % 1019,3 hPa 0,0 l/m 2 min 0 min 648 W/m 12,9 km/h (3 Bft) 97,87 %
16.06.2019 09:56 21,0 C 26,1 C 26,7 C 68 % 1019,3 hPa 0,0 l/m 2 min 0 min 642 W/m 9,7 km/h (2 Bft) 97,87 %
16.06.2019 09:54 21,0 C 26,1 C 26,7 C 68 % 1019,3 hPa 0,0 l/m 2 min 0 min 637 W/m 9,7 km/h (2 Bft) 97,87 %
16.06.2019 09:52 20,9 C 27,2 C 27,2 C 70 % 1019,3 hPa 0,0 l/m 2 min 0 min 635 W/m 9,7 km/h (2 Bft) 97,92 %
16.06.2019 09:50 20,9 C 27,2 C 27,8 C 70 % 1019,2 hPa 0,0 l/m 2 min 0 min 625 W/m 9,7 km/h (2 Bft) 97,87 %
16.06.2019 09:48 20,8 C 26,1 C 26,7 C 68 % 1019,3 hPa 0,0 l/m 2 min 0 min 622 W/m 19,3 km/h (3 Bft) 97,92 %
16.06.2019 09:46 20,8 C 26,1 C 26,1 C 69 % 1019,3 hPa 0,0 l/m 2 min 0 min 617 W/m 9,7 km/h (2 Bft) 97,92 %
16.06.2019 09:44 20,8 C 25,6 C 26,7 C 69 % 1019,3 hPa 0,0 l/m 2 min 0 min 612 W/m 12,9 km/h (3 Bft) 95,83 %
16.06.2019 09:42 20,7 C 24,4 C 25,6 C 68 % 1019,3 hPa 0,0 l/m 2 min 0 min 606 W/m 16,1 km/h (3 Bft) 97,56 %
16.06.2019 09:40 20,7 C 24,4 C 25,6 C 68 % 1019,3 hPa 0,0 l/m 2 min 0 min 600 W/m 19,3 km/h (3 Bft) 97,87 %
16.06.2019 09:38 20,7 C 24,4 C 25,6 C 68 % 1019,3 hPa 0,0 l/m 2 min 0 min 594 W/m 19,3 km/h (3 Bft) 95,74 %
16.06.2019 09:36 20,6 C 25,0 C 25,6 C 68 % 1019,2 hPa 0,0 l/m 2 min 0 min 590 W/m 12,9 km/h (3 Bft) 97,87 %
16.06.2019 09:34 20,6 C 24,4 C 24,4 C 68 % 1019,3 hPa 0,0 l/m 2 min 0 min 585 W/m 16,1 km/h (3 Bft) 95,74 %
16.06.2019 09:32 20,6 C 23,9 C 24,4 C 68 % 1019,3 hPa 0,0 l/m 2 min 0 min 578 W/m 19,3 km/h (3 Bft) 95,65 %
16.06.2019 09:30 20,6 C 24,4 C 25,0 C 69 % 1019,3 hPa 0,0 l/m 2 min 0 min 574 W/m 19,3 km/h (3 Bft) 97,92 %
16.06.2019 09:28 20,6 C 25,6 C 26,1 C 70 % 1019,3 hPa 0,0 l/m 2 min 0 min 566 W/m 12,9 km/h (3 Bft) 97,92 %
16.06.2019 09:26 20,6 C 26,7 C 27,2 C 71 % 1019,3 hPa 0,0 l/m 2 min 0 min 557 W/m 16,1 km/h (3 Bft) 95,74 %
16.06.2019 09:24 20,4 C 26,1 C 26,7 C 72 % 1019,2 hPa 0,0 l/m 2 min 0 min 552 W/m 12,9 km/h (3 Bft) 97,92 %
16.06.2019 09:22 20,3 C 25,6 C 25,6 C 71 % 1019,2 hPa 0,0 l/m 2 min 0 min 544 W/m 9,7 km/h (2 Bft) 97,92 %
16.06.2019 09:20 20,3 C 25,0 C 25,6 C 72 % 1019,3 hPa 0,0 l/m 2 min 0 min 535 W/m 12,9 km/h (3 Bft) 95,83 %
16.06.2019 09:18 20,2 C 26,1 C 26,1 C 72 % 1019,2 hPa 0,0 l/m 2 min 0 min 522 W/m 9,7 km/h (2 Bft) 97,56 %
16.06.2019 09:16 20,1 C 25,6 C 25,6 C 71 % 1019,2 hPa 0,0 l/m 2 min 0 min 500 W/m 12,9 km/h (3 Bft) 97,87 %
16.06.2019 09:14 20,0 C 25,6 C 25,6 C 71 % 1019,2 hPa 0,0 l/m 2 min 0 min 463 W/m 6,4 km/h (2 Bft) 97,87 %
16.06.2019 09:12 19,9 C 26,7 C 26,1 C 73 % 1019,1 hPa 0,0 l/m 2 min 0 min 434 W/m 6,4 km/h (2 Bft) 97,87 %
16.06.2019 09:10 19,8 C 25,6 C 26,1 C 73 % 1019,1 hPa 0,0 l/m 2 min 0 min 392 W/m 9,7 km/h (2 Bft) 97,92 %
16.06.2019 09:08 19,7 C 26,1 C 25,6 C 73 % 1019,0 hPa 0,0 l/m 2 min 0 min 345 W/m 9,7 km/h (2 Bft) 97,83 %
16.06.2019 09:06 19,6 C 25,6 C 25,6 C 73 % 1019,0 hPa 0,0 l/m 2 min 0 min 298 W/m 12,9 km/h (3 Bft) 97,87 %
16.06.2019 09:04 19,6 C 25,6 C 25,6 C 73 % 1019,0 hPa 0,0 l/m 0 min 0 min 249 W/m 9,7 km/h (2 Bft) 98,00 %
16.06.2019 09:02 19,4 C 25,0 C 25,0 C 73 % 1019,1 hPa 0,0 l/m 0 min 0 min 202 W/m 9,7 km/h (2 Bft) 95,92 %
16.06.2019 09:00 19,4 C 25,0 C 25,6 C 74 % 1019,0 hPa 0,0 l/m 0 min 0 min 163 W/m 9,7 km/h (2 Bft) 97,62 %
16.06.2019 08:58 19,3 C 25,6 C 25,6 C 74 % 1019,0 hPa 0,0 l/m 0 min 0 min 127 W/m 9,7 km/h (2 Bft) 97,87 %
16.06.2019 08:56 19,2 C 25,0 C 25,0 C 74 % 1018,9 hPa 0,0 l/m 0 min 0 min 92 W/m 6,4 km/h (2 Bft) 97,83 %
16.06.2019 08:54 19,1 C 24,4 C 24,4 C 74 % 1019,0 hPa 0,0 l/m 0 min 0 min 76 W/m 12,9 km/h (3 Bft) 97,87 %
16.06.2019 08:52 18,9 C 23,9 C 23,9 C 73 % 1019,0 hPa 0,0 l/m 0 min 0 min 61 W/m 22,5 km/h (4 Bft) 100,00 %
16.06.2019 08:50 18,9 C 23,3 C 23,3 C 74 % 1018,9 hPa 0,0 l/m 0 min 0 min 53 W/m 9,7 km/h (2 Bft) 100,00 %
16.06.2019 08:48 18,8 C 23,9 C 23,9 C 74 % 1018,9 hPa 0,0 l/m 0 min 0 min 49 W/m 9,7 km/h (2 Bft) 100,00 %
16.06.2019 08:46 18,7 C 22,8 C 22,8 C 73 % 1018,9 hPa 0,0 l/m 0 min 0 min 47 W/m 16,1 km/h (3 Bft) 100,00 %
16.06.2019 08:44 18,6 C 22,8 C 23,3 C 74 % 1018,9 hPa 0,0 l/m 0 min 0 min 47 W/m 19,3 km/h (3 Bft) 100,00 %
16.06.2019 08:42 18,5 C 23,9 C 23,3 C 76 % 1018,8 hPa 0,0 l/m 0 min 0 min 47 W/m 12,9 km/h (3 Bft) 100,00 %
16.06.2019 08:40 18,4 C 23,3 C 23,3 C 76 % 1018,8 hPa 0,0 l/m 0 min 0 min 47 W/m 9,7 km/h (2 Bft) 100,00 %
16.06.2019 08:38 18,3 C 22,8 C 22,8 C 76 % 1018,8 hPa 0,0 l/m 0 min 0 min 47 W/m 9,7 km/h (2 Bft) 100,00 %
16.06.2019 08:36 18,2 C 22,8 C 22,8 C 76 % 1018,9 hPa 0,0 l/m 0 min 0 min 46 W/m 9,7 km/h (2 Bft) 97,87 %
16.06.2019 08:34 18,2 C 22,8 C 22,2 C 76 % 1018,9 hPa 0,0 l/m 0 min 0 min 46 W/m 29,0 km/h (5 Bft) 100,00 %
16.06.2019 08:32 18,1 C 22,2 C 21,1 C 76 % 1018,9 hPa 0,0 l/m 0 min 0 min 46 W/m 16,1 km/h (3 Bft) 100,00 %
16.06.2019 08:30 17,9 C 22,2 C 20,6 C 77 % 1018,8 hPa 0,0 l/m 0 min 0 min 45 W/m 16,1 km/h (3 Bft) 100,00 %
16.06.2019 08:28 17,8 C 22,2 C 20,0 C 78 % 1018,8 hPa 0,0 l/m 0 min 0 min 44 W/m 12,9 km/h (3 Bft) 100,00 %
16.06.2019 08:26 17,7 C 22,2 C 18,3 C 78 % 1018,8 hPa 0,0 l/m 0 min 0 min 44 W/m 12,9 km/h (3 Bft) 100,00 %
16.06.2019 08:24 17,6 C 23,3 C 16,7 C 80 % 1018,7 hPa 0,0 l/m 0 min 0 min 44 W/m 12,9 km/h (3 Bft) 100,00 %
16.06.2019 08:22 17,5 C 22,8 C 16,7 C 80 % 1018,7 hPa 0,0 l/m 0 min 0 min 43 W/m 9,7 km/h (2 Bft) 100,00 %
16.06.2019 08:20 17,4 C 22,8 C 16,1 C 80 % 1018,6 hPa 0,0 l/m 0 min 0 min 42 W/m 6,4 km/h (2 Bft) 100,00 %
16.06.2019 08:18 17,2 C 23,3 C 16,1 C 80 % 1018,4 hPa 0,0 l/m 0 min 0 min 42 W/m 6,4 km/h (2 Bft) 100,00 %
16.06.2019 08:16 17,1 C 22,2 C 16,1 C 80 % 1018,4 hPa 0,0 l/m 0 min 0 min 42 W/m 6,4 km/h (2 Bft) 100,00 %
16.06.2019 08:14 17,0 C 22,2 C 16,1 C 80 % 1018,5 hPa 0,0 l/m 0 min 0 min 42 W/m 9,7 km/h (2 Bft) 100,00 %
16.06.2019 08:12 16,9 C 22,2 C 16,1 C 81 % 1018,4 hPa 0,0 l/m 0 min 0 min 41 W/m 6,4 km/h (2 Bft) 100,00 %
16.06.2019 08:10 16,7 C 21,7 C 16,1 C 81 % 1018,5 hPa 0,0 l/m 0 min 0 min 40 W/m 9,7 km/h (2 Bft) 100,00 %
16.06.2019 08:08 16,6 C 21,7 C 16,1 C 81 % 1018,5 hPa 0,0 l/m 0 min 0 min 40 W/m 9,7 km/h (2 Bft) 100,00 %
16.06.2019 08:06 16,4 C 21,1 C 16,1 C 81 % 1018,5 hPa 0,0 l/m 0 min 0 min 40 W/m 9,7 km/h (2 Bft) 100,00 %
16.06.2019 08:04 16,3 C 21,1 C 15,6 C 82 % 1018,5 hPa 0,0 l/m 0 min 0 min 40 W/m 16,1 km/h (3 Bft) 100,00 %
16.06.2019 08:02 16,3 C 20,0 C 15,6 C 82 % 1018,5 hPa 0,0 l/m 0 min 0 min 40 W/m 12,9 km/h (3 Bft) 100,00 %
16.06.2019 08:00 16,2 C 20,0 C 15,6 C 82 % 1018,6 hPa 0,0 l/m 0 min 0 min 40 W/m 12,9 km/h (3 Bft) 100,00 %
16.06.2019 07:58 16,1 C 19,4 C 15,6 C 82 % 1018,6 hPa 0,0 l/m 0 min 0 min 39 W/m 6,4 km/h (2 Bft) 97,67 %
16.06.2019 07:56 16,1 C 17,8 C 15,6 C 83 % 1018,6 hPa 0,0 l/m 0 min 0 min 39 W/m 16,1 km/h (3 Bft) 97,87 %
16.06.2019 07:54 15,9 C 16,1 C 15,6 C 83 % 1018,6 hPa 0,0 l/m 0 min 0 min 39 W/m 16,1 km/h (3 Bft) 100,00 %
16.06.2019 07:52 15,8 C 16,1 C 15,6 C 84 % 1018,6 hPa 0,0 l/m 0 min 0 min 39 W/m 22,5 km/h (4 Bft) 97,87 %
16.06.2019 07:50 15,8 C 16,1 C 15,6 C 85 % 1018,6 hPa 0,0 l/m 0 min 0 min 39 W/m 6,4 km/h (2 Bft) 97,87 %
16.06.2019 07:48 15,7 C 16,1 C 15,6 C 85 % 1018,6 hPa 0,0 l/m 0 min 0 min 37 W/m 16,1 km/h (3 Bft) 95,74 %
16.06.2019 07:46 15,7 C 16,1 C 15,6 C 85 % 1018,7 hPa 0,0 l/m 0 min 0 min 37 W/m 12,9 km/h (3 Bft) 97,87 %
16.06.2019 07:44 15,6 C 16,1 C 15,0 C 85 % 1018,6 hPa 0,0 l/m 0 min 0 min 37 W/m 12,9 km/h (3 Bft) 97,92 %
16.06.2019 07:42 15,6 C 16,1 C 15,0 C 86 % 1018,6 hPa 0,0 l/m 0 min 0 min 37 W/m 9,7 km/h (2 Bft) 97,87 %
16.06.2019 07:40 15,5 C 16,1 C 15,0 C 86 % 1018,6 hPa 0,0 l/m 0 min 0 min 37 W/m 12,9 km/h (3 Bft) 97,92 %
16.06.2019 07:38 15,5 C 16,1 C 15,0 C 87 % 1018,6 hPa 0,0 l/m 0 min 0 min 37 W/m 6,4 km/h (2 Bft) 95,83 %
16.06.2019 07:36 15,4 C 15,6 C 15,0 C 87 % 1018,6 hPa 0,0 l/m 0 min 0 min 36 W/m 9,7 km/h (2 Bft) 97,92 %
16.06.2019 07:34 15,3 C 15,6 C 15,0 C 87 % 1018,5 hPa 0,0 l/m 0 min 0 min 35 W/m 9,7 km/h (2 Bft) 97,56 %
16.06.2019 07:32 15,3 C 15,6 C 15,0 C 87 % 1018,5 hPa 0,0 l/m 0 min 0 min 40 W/m 9,7 km/h (2 Bft) 95,74 %
16.06.2019 07:30 15,2 C 15,6 C 15,0 C 88 % 1018,5 hPa 0,0 l/m 0 min 0 min 35 W/m 9,7 km/h (2 Bft) 97,87 %
16.06.2019 07:28 15,2 C 15,6 C 15,0 C 88 % 1018,5 hPa 0,0 l/m 0 min 0 min 35 W/m 9,7 km/h (2 Bft) 95,74 %
16.06.2019 07:26 15,1 C 15,6 C 15,0 C 88 % 1018,5 hPa 0,0 l/m 0 min 0 min 36 W/m 6,4 km/h (2 Bft) 93,75 %
16.06.2019 07:24 15,0 C 15,6 C 15,0 C 88 % 1018,5 hPa 0,0 l/m 0 min 0 min 37 W/m 6,4 km/h (2 Bft) 95,83 %
16.06.2019 07:22 15,0 C 15,6 C 14,4 C 88 % 1018,5 hPa 0,0 l/m 0 min 0 min 37 W/m 6,4 km/h (2 Bft) 95,83 %
16.06.2019 07:20 14,9 C 15,0 C 14,4 C 88 % 1018,5 hPa 0,0 l/m 0 min 0 min 39 W/m 12,9 km/h (3 Bft) 91,49 %
16.06.2019 07:18 14,9 C 15,0 C 14,4 C 88 % 1018,5 hPa 0,0 l/m 0 min 0 min 40 W/m 9,7 km/h (2 Bft) 95,83 %
16.06.2019 07:16 14,9 C 15,0 C 14,4 C 88 % 1018,5 hPa 0,0 l/m 0 min 0 min 41 W/m 12,9 km/h (3 Bft) 95,24 %
16.06.2019 07:14 14,8 C 15,0 C 14,4 C 88 % 1018,5 hPa 0,0 l/m 0 min 0 min 44 W/m 6,4 km/h (2 Bft) 95,65 %
16.06.2019 07:12 14,8 C 15,0 C 14,4 C 88 % 1018,4 hPa 0,0 l/m 0 min 0 min 45 W/m 6,4 km/h (2 Bft) 93,62 %
16.06.2019 07:10 14,8 C 15,0 C 14,4 C 88 % 1018,4 hPa 0,0 l/m 0 min 0 min 47 W/m 6,4 km/h (2 Bft) 93,62 %
16.06.2019 07:08 14,7 C 15,0 C 14,4 C 88 % 1018,4 hPa 0,0 l/m 0 min 0 min 47 W/m 6,4 km/h (2 Bft) 93,62 %
16.06.2019 07:06 14,7 C 14,4 C 14,4 C 88 % 1018,4 hPa 0,0 l/m 0 min 0 min 47 W/m 6,4 km/h (2 Bft) 95,74 %
16.06.2019 07:04 14,7 C 14,4 C 13,9 C 88 % 1018,5 hPa 0,0 l/m 0 min 0 min 44 W/m 12,9 km/h (3 Bft) 93,88 %
16.06.2019 07:02 14,7 C 14,4 C 13,9 C 88 % 1018,4 hPa 0,0 l/m 0 min 0 min 41 W/m 6,4 km/h (2 Bft) 92,00 %
16.06.2019 07:00 14,6 C 14,4 C 13,9 C 88 % 1018,4 hPa 0,0 l/m 0 min 0 min 39 W/m 6,4 km/h (2 Bft) 95,12 %
16.06.2019 06:58 14,6 C 14,4 C 13,9 C 88 % 1018,4 hPa 0,0 l/m 0 min 0 min 36 W/m 6,4 km/h (2 Bft) 95,74 %
16.06.2019 06:56 14,6 C 14,4 C 13,9 C 88 % 1018,5 hPa 0,0 l/m 0 min 0 min 33 W/m 9,7 km/h (2 Bft) 93,62 %
16.06.2019 06:54 14,6 C 14,4 C 13,9 C 88 % 1018,5 hPa 0,0 l/m 0 min 0 min 32 W/m 12,9 km/h (3 Bft) 89,36 %
16.06.2019 06:52 14,6 C 14,4 C 13,9 C 88 % 1018,5 hPa 0,0 l/m 0 min 0 min 31 W/m 9,7 km/h (2 Bft) 95,74 %
16.06.2019 06:50 14,6 C 13,9 C 13,9 C 88 % 1018,5 hPa 0,0 l/m 0 min 0 min 28 W/m 9,7 km/h (2 Bft) 95,83 %
16.06.2019 06:48 14,6 C 13,9 C 13,9 C 88 % 1018,5 hPa 0,0 l/m 0 min 0 min 27 W/m 6,4 km/h (2 Bft) 93,62 %
16.06.2019 06:46 14,6 C 13,9 C 13,9 C 88 % 1018,4 hPa 0,0 l/m 0 min 0 min 25 W/m 6,4 km/h (2 Bft) 93,62 %
16.06.2019 06:44 14,6 C 13,9 C 13,9 C 88 % 1018,5 hPa 0,0 l/m 0 min 0 min 25 W/m 9,7 km/h (2 Bft) 95,65 %
16.06.2019 06:42 14,6 C 13,9 C 13,9 C 88 % 1018,4 hPa 0,0 l/m 0 min 0 min 25 W/m 9,7 km/h (2 Bft) 93,62 %
16.06.2019 06:40 14,6 C 13,9 C 13,9 C 88 % 1018,4 hPa 0,0 l/m 0 min 0 min 23 W/m 9,7 km/h (2 Bft) 95,74 %
16.06.2019 06:38 14,6 C 13,9 C 13,9 C 88 % 1018,4 hPa 0,0 l/m 0 min 0 min 23 W/m 9,7 km/h (2 Bft) 95,74 %
16.06.2019 06:36 14,6 C 13,9 C 13,9 C 89 % 1018,4 hPa 0,0 l/m 0 min 0 min 23 W/m 9,7 km/h (2 Bft) 93,62 %
16.06.2019 06:34 14,6 C 13,9 C 13,9 C 89 % 1018,4 hPa 0,0 l/m 0 min 0 min 20 W/m 9,7 km/h (2 Bft) 95,74 %
16.06.2019 06:32 14,6 C 13,9 C 13,9 C 89 % 1018,4 hPa 0,0 l/m 0 min 0 min 19 W/m 6,4 km/h (2 Bft) 95,65 %
16.06.2019 06:30 14,5 C 13,9 C 13,9 C 89 % 1018,3 hPa 0,0 l/m 0 min 0 min 18 W/m 6,4 km/h (2 Bft) 95,74 %
16.06.2019 06:28 14,5 C 13,9 C 13,9 C 89 % 1018,4 hPa 0,0 l/m 0 min 0 min 18 W/m 6,4 km/h (2 Bft) 95,74 %
16.06.2019 06:26 14,5 C 13,9 C 13,9 C 89 % 1018,3 hPa 0,0 l/m 0 min 0 min 16 W/m 6,4 km/h (2 Bft) 97,87 %
16.06.2019 06:24 14,5 C 13,9 C 13,9 C 89 % 1018,3 hPa 0,0 l/m 0 min 0 min 16 W/m 9,7 km/h (2 Bft) 97,87 %
16.06.2019 06:22 14,5 C 13,9 C 13,9 C 89 % 1018,3 hPa 0,0 l/m 0 min 0 min 16 W/m 12,9 km/h (3 Bft) 100,00 %
16.06.2019 06:20 14,5 C 13,9 C 13,9 C 89 % 1018,3 hPa 0,0 l/m 0 min 0 min 15 W/m 6,4 km/h (2 Bft) 100,00 %
16.06.2019 06:18 14,6 C 13,9 C 13,9 C 89 % 1018,3 hPa 0,0 l/m 0 min 0 min 14 W/m 9,7 km/h (2 Bft) 100,00 %
16.06.2019 06:16 14,5 C 13,9 C 13,9 C 90 % 1018,3 hPa 0,0 l/m 0 min 0 min 13 W/m 9,7 km/h (2 Bft) 100,00 %
16.06.2019 06:14 14,5 C 13,9 C 13,9 C 90 % 1018,4 hPa 0,0 l/m 0 min 0 min 12 W/m 12,9 km/h (3 Bft) 100,00 %
16.06.2019 06:12 14,6 C 13,9 C 13,9 C 90 % 1018,4 hPa 0,0 l/m 0 min 0 min 12 W/m 6,4 km/h (2 Bft) 100,00 %
16.06.2019 06:10 14,6 C 13,9 C 13,9 C 90 % 1018,3 hPa 0,0 l/m 0 min 0 min 11 W/m 9,7 km/h (2 Bft) 100,00 %
16.06.2019 06:08 14,6 C 13,9 C 13,9 C 90 % 1018,3 hPa 0,0 l/m 0 min 0 min 10 W/m 9,7 km/h (2 Bft) 98,92 %
16.06.2019 06:04 14,6 C 13,9 C 13,9 C 90 % 1018,3 hPa 0,0 l/m 0 min 0 min 9 W/m 9,7 km/h (2 Bft) 100,00 %
16.06.2019 06:02 14,6 C 13,9 C 13,9 C 90 % 1018,3 hPa 0,0 l/m 0 min 0 min 9 W/m 9,7 km/h (2 Bft) 100,00 %
16.06.2019 06:00 14,6 C 13,9 C 13,9 C 90 % 1018,2 hPa 0,0 l/m 0 min 0 min 7 W/m 9,7 km/h (2 Bft) 100,00 %
16.06.2019 05:58 14,6 C 13,9 C 13,9 C 91 % 1018,2 hPa 0,0 l/m 0 min 0 min 7 W/m 9,7 km/h (2 Bft) 100,00 %
16.06.2019 05:56 14,6 C 13,9 C 13,9 C 91 % 1018,3 hPa 0,0 l/m 0 min 0 min 7 W/m 6,4 km/h (2 Bft) 97,83 %
16.06.2019 05:54 14,6 C 13,9 C 13,9 C 91 % 1018,2 hPa 0,0 l/m 0 min 0 min 7 W/m 6,4 km/h (2 Bft) 95,74 %
16.06.2019 05:52 14,7 C 13,9 C 13,9 C 91 % 1018,3 hPa 0,0 l/m 0 min 0 min 7 W/m 9,7 km/h (2 Bft) 100,00 %
16.06.2019 05:50 14,7 C 13,9 C 13,9 C 91 % 1018,2 hPa 0,0 l/m 0 min 0 min 7 W/m 9,7 km/h (2 Bft) 100,00 %
16.06.2019 05:48 14,7 C 13,9 C 13,9 C 91 % 1018,2 hPa 0,0 l/m 0 min 0 min 6 W/m 12,9 km/h (3 Bft) 100,00 %
16.06.2019 05:46 14,7 C 13,9 C 13,9 C 91 % 1018,2 hPa 0,0 l/m 0 min 0 min 5 W/m 6,4 km/h (2 Bft) 100,00 %
16.06.2019 05:44 14,7 C 13,9 C 13,9 C 91 % 1018,2 hPa 0,0 l/m 0 min 0 min 5 W/m 9,7 km/h (2 Bft) 100,00 %
16.06.2019 05:42 14,7 C 13,9 C 13,9 C 92 % 1018,2 hPa 0,0 l/m 0 min 0 min 5 W/m 3,2 km/h (1 Bft) 100,00 %
16.06.2019 05:40 14,7 C 13,9 C 13,9 C 92 % 1018,1 hPa 0,0 l/m 0 min 0 min 5 W/m 9,7 km/h (2 Bft) 97,87 %
16.06.2019 05:38 14,7 C 14,4 C 13,9 C 92 % 1018,1 hPa 0,0 l/m 0 min 0 min 2 W/m 9,7 km/h (2 Bft) 100,00 %
16.06.2019 05:36 14,8 C 14,4 C 13,9 C 92 % 1018,0 hPa 0,0 l/m 0 min 0 min 0 W/m 6,4 km/h (2 Bft) 97,87 %
16.06.2019 05:34 14,8 C 14,4 C 13,9 C 92 % 1018,0 hPa 0,0 l/m 0 min 0 min 0 W/m 0,0 km/h (0 Bft) 100,00 %
16.06.2019 05:32 14,8 C 13,9 C 13,9 C 92 % 1018,0 hPa 0,0 l/m 0 min 0 min 0 W/m 0,0 km/h (0 Bft) 100,00 %
16.06.2019 05:30 14,8 C 13,9 C 13,9 C 92 % 1018,0 hPa 0,0 l/m 0 min 0 min 0 W/m 0,0 km/h (0 Bft) 100,00 %
16.06.2019 05:28 14,9 C 13,9 C 13,9 C 92 % 1018,0 hPa 0,0 l/m 0 min 0 min 0 W/m 0,0 km/h (0 Bft) 97,87 %
16.06.2019 05:26 14,9 C 13,9 C 13,9 C 92 % 1018,0 hPa 0,0 l/m 0 min 0 min 0 W/m 0,0 km/h (0 Bft) 100,00 %
16.06.2019 05:24 14,9 C 13,9 C 13,9 C 92 % 1018,0 hPa 0,0 l/m 0 min 0 min 0 W/m 0,0 km/h (0 Bft) 100,00 %
16.06.2019 05:22 14,9 C 13,9 C 13,9 C 92 % 1018,0 hPa 0,0 l/m 0 min 0 min 0 W/m 0,0 km/h (0 Bft) 100,00 %
16.06.2019 05:20 14,9 C 13,9 C 13,9 C 92 % 1018,1 hPa 0,0 l/m 0 min 0 min 0 W/m 0,0 km/h (0 Bft) 100,00 %
16.06.2019 05:18 14,9 C 13,9 C 13,9 C 92 % 1018,0 hPa 0,0 l/m 0 min 0 min 0 W/m 0,0 km/h (0 Bft) 100,00 %
16.06.2019 05:16 14,9 C 13,9 C 13,9 C 92 % 1018,0 hPa 0,0 l/m 0 min 0 min 0 W/m 0,0 km/h (0 Bft) 97,87 %
16.06.2019 05:14 14,9 C 13,9 C 13,9 C 92 % 1017,9 hPa 0,0 l/m 0 min 0 min 0 W/m 0,0 km/h (0 Bft) 100,00 %
16.06.2019 05:12 14,9 C 13,9 C 13,9 C 92 % 1017,9 hPa 0,0 l/m 0 min 0 min 0 W/m 0,0 km/h (0 Bft) 95,74 %
16.06.2019 05:10 14,9 C 13,9 C 13,9 C 92 % 1017,8 hPa 0,0 l/m 0 min 0 min 0 W/m 0,0 km/h (0 Bft) 97,83 %
16.06.2019 05:08 14,9 C 13,9 C 13,9 C 92 % 1017,8 hPa 0,0 l/m 0 min 0 min 0 W/m 0,0 km/h (0 Bft) 95,74 %
16.06.2019 05:06 14,9 C 13,9 C 13,9 C 92 % 1017,7 hPa 0,0 l/m 0 min 0 min 0 W/m 0,0 km/h (0 Bft) 97,87 %
16.06.2019 05:04 14,9 C 13,9 C 13,9 C 92 % 1017,7 hPa 0,0 l/m 0 min 0 min 0 W/m 0,0 km/h (0 Bft) 97,87 %
16.06.2019 05:02 15,0 C 13,9 C 13,9 C 92 % 1017,7 hPa 0,0 l/m 0 min 0 min 0 W/m 0,0 km/h (0 Bft) 97,87 %
16.06.2019 05:00 14,9 C 13,9 C 13,9 C 92 % 1017,6 hPa 0,0 l/m 0 min 0 min 0 W/m 0,0 km/h (0 Bft) 95,65 %
16.06.2019 04:58 15,0 C 13,9 C 13,9 C 92 % 1017,6 hPa 0,0 l/m 0 min 0 min 0 W/m 0,0 km/h (0 Bft) 97,87 %
16.06.2019 04:56 15,0 C 13,9 C 13,9 C 91 % 1017,6 hPa 0,0 l/m 0 min 0 min 0 W/m 0,0 km/h (0 Bft) 97,87 %
16.06.2019 04:54 15,0 C 13,9 C 13,9 C 91 % 1017,6 hPa 0,0 l/m 0 min 0 min 0 W/m 0,0 km/h (0 Bft) 97,87 %
16.06.2019 04:52 15,0 C 13,9 C 13,9 C 91 % 1017,5 hPa 0,0 l/m 0 min 0 min 0 W/m 0,0 km/h (0 Bft) 97,87 %
16.06.2019 04:50 15,0 C 13,9 C 13,9 C 91 % 1017,4 hPa 0,0 l/m 0 min 0 min 0 W/m 0,0 km/h (0 Bft) 97,87 %
16.06.2019 04:48 15,0 C 14,4 C 13,9 C 91 % 1017,4 hPa 0,0 l/m 0 min 0 min 0 W/m 0,0 km/h (0 Bft) 97,87 %
16.06.2019 04:46 15,0 C 14,4 C 13,9 C 91 % 1017,4 hPa 0,0 l/m 0 min 0 min 0 W/m 0,0 km/h (0 Bft) 97,83 %
16.06.2019 04:44 15,0 C 14,4 C 13,9 C 91 % 1017,4 hPa 0,0 l/m 0 min 0 min 0 W/m 0,0 km/h (0 Bft) 95,74 %
16.06.2019 04:42 15,0 C 14,4 C 13,9 C 91 % 1017,4 hPa 0,0 l/m 0 min 0 min 0 W/m 0,0 km/h (0 Bft) 97,87 %
16.06.2019 04:40 15,0 C 13,9 C 13,9 C 91 % 1017,3 hPa 0,0 l/m 0 min 0 min 0 W/m 0,0 km/h (0 Bft) 93,62 %
16.06.2019 04:38 15,0 C 14,4 C 13,9 C 90 % 1017,4 hPa 0,0 l/m 0 min 0 min 0 W/m 0,0 km/h (0 Bft) 97,87 %
16.06.2019 04:36 15,0 C 13,9 C 13,3 C 90 % 1017,4 hPa 0,0 l/m 0 min 0 min 0 W/m 0,0 km/h (0 Bft) 97,83 %
16.06.2019 04:34 15,0 C 13,9 C 13,3 C 90 % 1017,4 hPa 0,0 l/m 0 min 0 min 0 W/m 0,0 km/h (0 Bft) 97,87 %
16.06.2019 04:32 15,1 C 13,9 C 13,3 C 90 % 1017,4 hPa 0,0 l/m 0 min 0 min 0 W/m 0,0 km/h (0 Bft) 97,87 %
16.06.2019 04:30 15,1 C 13,9 C 13,3 C 90 % 1017,3 hPa 0,0 l/m 0 min 0 min 0 W/m 0,0 km/h (0 Bft) 95,74 %
16.06.2019 04:28 15,1 C 13,9 C 12,8 C 90 % 1017,4 hPa 0,0 l/m 0 min 0 min 0 W/m 0,0 km/h (0 Bft) 97,92 %
16.06.2019 04:26 15,1 C 13,9 C 12,8 C 90 % 1017,4 hPa 0,0 l/m 0 min 0 min 0 W/m 0,0 km/h (0 Bft) 97,92 %
16.06.2019 04:24 15,1 C 13,3 C 12,8 C 90 % 1017,3 hPa 0,0 l/m 0 min 0 min 0 W/m 0,0 km/h (0 Bft) 95,74 %
16.06.2019 04:22 15,2 C 13,3 C 12,8 C 90 % 1017,3 hPa 0,0 l/m 0 min 0 min 0 W/m 0,0 km/h (0 Bft) 95,83 %
16.06.2019 04:20 15,2 C 13,9 C 12,8 C 90 % 1017,3 hPa 0,0 l/m 0 min 0 min 0 W/m 0,0 km/h (0 Bft) 95,24 %
16.06.2019 04:18 15,2 C 13,9 C 12,8 C 89 % 1017,2 hPa 0,0 l/m 0 min 0 min 0 W/m 0,0 km/h (0 Bft) 95,65 %
16.06.2019 04:16 15,2 C 13,9 C 12,8 C 89 % 1017,2 hPa 0,0 l/m 0 min 0 min 0 W/m 0,0 km/h (0 Bft) 95,74 %
16.06.2019 04:14 15,2 C 13,9 C 12,8 C 89 % 1017,2 hPa 0,0 l/m 0 min 0 min 0 W/m 0,0 km/h (0 Bft) 97,87 %
16.06.2019 04:12 15,2 C 13,9 C 12,8 C 89 % 1017,3 hPa 0,0 l/m 0 min 0 min 0 W/m 0,0 km/h (0 Bft) 97,87 %
16.06.2019 04:10 15,3 C 13,9 C 12,8 C 89 % 1017,3 hPa 0,0 l/m 0 min 0 min 0 W/m 0,0 km/h (0 Bft) 97,87 %
16.06.2019 04:08 15,3 C 13,9 C 12,8 C 89 % 1017,3 hPa 0,0 l/m 0 min 0 min 0 W/m 0,0 km/h (0 Bft) 97,87 %
16.06.2019 04:06 15,3 C 13,9 C 12,8 C 90 % 1017,3 hPa 0,0 l/m 0 min 0 min 0 W/m 0,0 km/h (0 Bft) 95,65 %
16.06.2019 04:05 15,3 C 13,9 C 13,3 C 90 % 1017,3 hPa 0,0 l/m 0 min 0 min 0 W/m 0,0 km/h (0 Bft) 96,67 %
16.06.2019 04:00 15,4 C 14,4 C 13,3 C 90 % 1017,3 hPa 0,0 l/m 0 min 0 min 0 W/m 0,0 km/h (0 Bft) 97,87 %
16.06.2019 03:58 15,4 C 14,4 C 13,3 C 89 % 1017,3 hPa 0,0 l/m 0 min 0 min 0 W/m 0,0 km/h (0 Bft) 97,87 %
16.06.2019 03:56 15,4 C 13,9 C 13,3 C 89 % 1017,3 hPa 0,0 l/m 0 min 0 min 0 W/m 0,0 km/h (0 Bft) 95,74 %
16.06.2019 03:54 15,4 C 14,4 C 13,3 C 89 % 1017,3 hPa 0,0 l/m 0 min 0 min 0 W/m 0,0 km/h (0 Bft) 97,83 %
16.06.2019 03:52 15,4 C 13,9 C 13,3 C 89 % 1017,3 hPa 0,0 l/m 0 min 0 min 0 W/m 0,0 km/h (0 Bft) 97,87 %
16.06.2019 03:50 15,5 C 13,9 C 13,3 C 89 % 1017,3 hPa 0,0 l/m 0 min 0 min 0 W/m 0,0 km/h (0 Bft) 97,87 %
16.06.2019 03:48 15,5 C 13,9 C 13,3 C 89 % 1017,3 hPa 0,0 l/m 0 min 0 min 0 W/m 0,0 km/h (0 Bft) 95,74 %
16.06.2019 03:46 15,5 C 14,4 C 13,3 C 89 % 1017,3 hPa 0,0 l/m 0 min 0 min 0 W/m 0,0 km/h (0 Bft) 95,74 %
16.06.2019 03:44 15,6 C 14,4 C 13,3 C 89 % 1017,4 hPa 0,0 l/m 0 min 0 min 0 W/m 0,0 km/h (0 Bft) 95,74 %
16.06.2019 03:42 15,6 C 14,4 C 13,9 C 89 % 1017,4 hPa 0,0 l/m 0 min 0 min 0 W/m 0,0 km/h (0 Bft) 91,30 %
16.06.2019 03:40 15,6 C 14,4 C 13,9 C 89 % 1017,3 hPa 0,0 l/m 0 min 0 min 0 W/m 0,0 km/h (0 Bft) 95,74 %
16.06.2019 03:38 15,6 C 14,4 C 13,3 C 89 % 1017,3 hPa 0,0 l/m 0 min 0 min 0 W/m 0,0 km/h (0 Bft) 95,74 %
16.06.2019 03:36 15,6 C 14,4 C 13,3 C 89 % 1017,3 hPa 0,0 l/m 0 min 0 min 0 W/m 0,0 km/h (0 Bft) 95,74 %
16.06.2019 03:34 15,7 C 14,4 C 13,3 C 89 % 1017,3 hPa 0,0 l/m 0 min 0 min 0 W/m 0,0 km/h (0 Bft) 95,74 %
16.06.2019 03:32 15,7 C 14,4 C 13,3 C 88 % 1017,3 hPa 0,0 l/m 0 min 0 min 0 W/m 0,0 km/h (0 Bft) 95,74 %
16.06.2019 03:30 15,7 C 14,4 C 13,3 C 88 % 1017,3 hPa 0,0 l/m 0 min 0 min 0 W/m 0,0 km/h (0 Bft) 97,83 %
16.06.2019 03:28 15,7 C 14,4 C 13,3 C 88 % 1017,3 hPa 0,0 l/m 0 min 0 min 0 W/m 0,0 km/h (0 Bft) 97,87 %
16.06.2019 03:26 15,7 C 13,9 C 13,3 C 88 % 1017,2 hPa 0,0 l/m 0 min 0 min 0 W/m 0,0 km/h (0 Bft) 97,87 %
16.06.2019 03:24 15,8 C 14,4 C 13,3 C 88 % 1017,3 hPa 0,0 l/m 0 min 0 min 0 W/m 0,0 km/h (0 Bft) 97,87 %
16.06.2019 03:22 15,8 C 13,9 C 13,3 C 88 % 1017,2 hPa 0,0 l/m 0 min 0 min 0 W/m 0,0 km/h (0 Bft) 97,87 %
16.06.2019 03:20 15,8 C 13,9 C 13,3 C 88 % 1017,2 hPa 0,0 l/m 0 min 0 min 0 W/m 0,0 km/h (0 Bft) 97,87 %
16.06.2019 03:18 15,8 C 13,9 C 13,3 C 88 % 1017,2 hPa 0,0 l/m 0 min 0 min 0 W/m 0,0 km/h (0 Bft) 97,83 %
16.06.2019 03:16 15,9 C 13,9 C 13,3 C 88 % 1017,2 hPa 0,0 l/m 0 min 0 min 0 W/m 0,0 km/h (0 Bft) 97,87 %
16.06.2019 03:14 15,9 C 13,9 C 13,3 C 88 % 1017,2 hPa 0,0 l/m 0 min 0 min 0 W/m 0,0 km/h (0 Bft) 97,87 %
16.06.2019 03:12 15,9 C 13,9 C 13,3 C 88 % 1017,2 hPa 0,0 l/m 0 min 0 min 0 W/m 0,0 km/h (0 Bft) 95,74 %
16.06.2019 03:10 15,9 C 13,9 C 13,3 C 88 % 1017,2 hPa 0,0 l/m 0 min 0 min 0 W/m 0,0 km/h (0 Bft) 95,74 %
16.06.2019 03:08 16,0 C 13,9 C 13,3 C 88 % 1017,2 hPa 0,0 l/m 0 min 0 min 0 W/m 0,0 km/h (0 Bft) 95,65 %
16.06.2019 03:06 16,0 C 13,9 C 13,9 C 88 % 1017,2 hPa 0,0 l/m 0 min 0 min 0 W/m 0,0 km/h (0 Bft) 95,74 %
16.06.2019 03:04 16,1 C 14,4 C 13,9 C 88 % 1017,3 hPa 0,0 l/m 0 min 0 min 0 W/m 0,0 km/h (0 Bft) 97,87 %
16.06.2019 03:02 16,1 C 14,4 C 13,9 C 88 % 1017,2 hPa 0,0 l/m 0 min 0 min 0 W/m 0,0 km/h (0 Bft) 97,87 %
16.06.2019 03:00 16,1 C 14,4 C 13,9 C 88 % 1017,2 hPa 0,0 l/m 0 min 0 min 0 W/m 0,0 km/h (0 Bft) 97,87 %
16.06.2019 02:58 16,1 C 14,4 C 13,9 C 88 % 1017,1 hPa 0,0 l/m 0 min 0 min 0 W/m 0,0 km/h (0 Bft) 97,87 %
16.06.2019 02:56 16,1 C 14,4 C 13,9 C 88 % 1017,1 hPa 0,0 l/m 0 min 0 min 0 W/m 0,0 km/h (0 Bft) 97,83 %
16.06.2019 02:54 16,2 C 14,4 C 13,9 C 88 % 1017,1 hPa 0,0 l/m 0 min 0 min 0 W/m 0,0 km/h (0 Bft) 97,87 %
16.06.2019 02:52 16,2 C 14,4 C 13,9 C 88 % 1017,1 hPa 0,0 l/m 0 min 0 min 0 W/m 0,0 km/h (0 Bft) 97,87 %
16.06.2019 02:50 16,2 C 15,0 C 14,4 C 88 % 1017,0 hPa 0,0 l/m 0 min 0 min 0 W/m 0,0 km/h (0 Bft) 95,74 %
16.06.2019 02:48 16,2 C 15,0 C 13,9 C 88 % 1017,2 hPa 0,0 l/m 0 min 0 min 0 W/m 0,0 km/h (0 Bft) 97,87 %
16.06.2019 02:46 16,2 C 14,4 C 13,9 C 88 % 1017,1 hPa 0,0 l/m 0 min 0 min 0 W/m 0,0 km/h (0 Bft) 97,87 %
16.06.2019 02:44 16,2 C 14,4 C 13,9 C 88 % 1017,2 hPa 0,0 l/m 0 min 0 min 0 W/m 0,0 km/h (0 Bft) 97,83 %
16.06.2019 02:42 16,2 C 14,4 C 14,4 C 88 % 1017,2 hPa 0,0 l/m 0 min 0 min 0 W/m 0,0 km/h (0 Bft) 97,87 %
16.06.2019 02:40 16,3 C 14,4 C 14,4 C 88 % 1017,1 hPa 0,0 l/m 0 min 0 min 0 W/m 0,0 km/h (0 Bft) 95,74 %
16.06.2019 02:38 16,3 C 15,0 C 14,4 C 88 % 1017,1 hPa 0,0 l/m 0 min 0 min 0 W/m 0,0 km/h (0 Bft) 95,74 %
16.06.2019 02:36 16,3 C 15,0 C 14,4 C 88 % 1017,2 hPa 0,0 l/m 0 min 0 min 0 W/m 0,0 km/h (0 Bft) 100,00 %
16.06.2019 02:34 16,3 C 15,0 C 14,4 C 88 % 1017,2 hPa 0,0 l/m 0 min 0 min 0 W/m 0,0 km/h (0 Bft) 97,87 %
16.06.2019 02:32 16,3 C 15,0 C 14,4 C 88 % 1017,1 hPa 0,0 l/m 0 min 0 min 0 W/m 0,0 km/h (0 Bft) 97,83 %
16.06.2019 02:30 16,3 C 15,0 C 15,0 C 88 % 1017,2 hPa 0,0 l/m 0 min 0 min 0 W/m 0,0 km/h (0 Bft) 97,87 %
16.06.2019 02:28 16,3 C 15,6 C 15,0 C 88 % 1017,3 hPa 0,0 l/m 0 min 0 min 0 W/m 0,0 km/h (0 Bft) 97,87 %
16.06.2019 02:26 16,3 C 15,6 C 15,0 C 88 % 1017,2 hPa 0,0 l/m 0 min 0 min 0 W/m 0,0 km/h (0 Bft) 97,87 %
16.06.2019 02:24 16,3 C 15,6 C 15,0 C 88 % 1017,1 hPa 0,0 l/m 0 min 0 min 0 W/m 0,0 km/h (0 Bft) 95,74 %
16.06.2019 02:22 16,3 C 15,6 C 15,0 C 88 % 1017,1 hPa 0,0 l/m 0 min 0 min 0 W/m 0,0 km/h (0 Bft) 97,87 %
16.06.2019 02:20 16,3 C 15,6 C 15,0 C 88 % 1017,1 hPa 0,0 l/m 0 min 0 min 0 W/m 0,0 km/h (0 Bft) 95,65 %
16.06.2019 02:18 16,3 C 15,6 C 15,0 C 88 % 1017,1 hPa 0,0 l/m 0 min 0 min 0 W/m 0,0 km/h (0 Bft) 97,87 %
16.06.2019 02:16 16,3 C 15,6 C 15,0 C 88 % 1017,2 hPa 0,0 l/m 0 min 0 min 0 W/m 0,0 km/h (0 Bft) 97,87 %
16.06.2019 02:14 16,4 C 15,6 C 15,0 C 88 % 1017,2 hPa 0,0 l/m 0 min 0 min 0 W/m 0,0 km/h (0 Bft) 97,87 %
16.06.2019 02:12 16,3 C 15,6 C 15,0 C 88 % 1017,1 hPa 0,0 l/m 0 min 0 min 0 W/m 0,0 km/h (0 Bft) 97,87 %
16.06.2019 02:10 16,4 C 15,6 C 15,0 C 88 % 1017,1 hPa 0,0 l/m 0 min 0 min 0 W/m 0,0 km/h (0 Bft) 97,87 %
16.06.2019 02:08 16,4 C 15,0 C 15,0 C 88 % 1017,1 hPa 0,0 l/m 0 min 0 min 0 W/m 0,0 km/h (0 Bft) 97,83 %
16.06.2019 02:06 16,4 C 15,0 C 15,0 C 88 % 1017,0 hPa 0,0 l/m 0 min 0 min 0 W/m 0,0 km/h (0 Bft) 97,87 %
16.06.2019 02:04 16,4 C 15,0 C 15,0 C 88 % 1016,9 hPa 0,0 l/m 0 min 0 min 0 W/m 0,0 km/h (0 Bft) 97,87 %
16.06.2019 02:02 16,4 C 15,0 C 15,0 C 88 % 1017,0 hPa 0,0 l/m 0 min 0 min 0 W/m 0,0 km/h (0 Bft) 97,87 %
16.06.2019 02:00 16,4 C 15,6 C 15,0 C 88 % 1017,1 hPa 0,0 l/m 0 min 0 min 0 W/m 0,0 km/h (0 Bft) 95,74 %
16.06.2019 01:58 16,3 C 15,6 C 15,0 C 88 % 1017,1 hPa 0,0 l/m 0 min 0 min 0 W/m 0,0 km/h (0 Bft) 97,87 %
16.06.2019 01:56 16,3 C 15,6 C 15,0 C 88 % 1017,0 hPa 0,0 l/m 0 min 0 min 0 W/m 0,0 km/h (0 Bft) 100,00 %
16.06.2019 01:54 16,3 C 15,6 C 15,0 C 88 % 1017,0 hPa 0,0 l/m 0 min 0 min 0 W/m 0,0 km/h (0 Bft) 97,87 %
16.06.2019 01:52 16,3 C 15,6 C 15,0 C 88 % 1017,0 hPa 0,0 l/m 0 min 0 min 0 W/m 0,0 km/h (0 Bft) 95,74 %
16.06.2019 01:50 16,3 C 15,6 C 15,0 C 88 % 1017,0 hPa 0,0 l/m 0 min 0 min 0 W/m 0,0 km/h (0 Bft) 97,87 %
16.06.2019 01:48 16,3 C 15,6 C 15,0 C 88 % 1017,0 hPa 0,0 l/m 0 min 0 min 0 W/m 0,0 km/h (0 Bft) 100,00 %
16.06.2019 01:46 16,3 C 15,6 C 15,0 C 88 % 1017,0 hPa 0,0 l/m 0 min 0 min 0 W/m 0,0 km/h (0 Bft) 100,00 %
16.06.2019 01:44 16,3 C 15,6 C 15,0 C 88 % 1017,0 hPa 0,0 l/m 0 min 0 min 0 W/m 0,0 km/h (0 Bft) 97,83 %
16.06.2019 01:42 16,3 C 15,6 C 15,0 C 88 % 1017,0 hPa 0,0 l/m 0 min 0 min 0 W/m 0,0 km/h (0 Bft) 97,87 %
16.06.2019 01:40 16,3 C 15,6 C 15,0 C 88 % 1017,1 hPa 0,0 l/m 0 min 0 min 0 W/m 0,0 km/h (0 Bft) 97,87 %
16.06.2019 01:38 16,3 C 15,6 C 15,0 C 88 % 1017,2 hPa 0,0 l/m 0 min 0 min 0 W/m 0,0 km/h (0 Bft) 100,00 %
16.06.2019 01:36 16,3 C 15,6 C 15,0 C 88 % 1017,2 hPa 0,0 l/m 0 min 0 min 0 W/m 0,0 km/h (0 Bft) 100,00 %
16.06.2019 01:34 16,3 C 15,6 C 15,0 C 88 % 1017,1 hPa 0,0 l/m 0 min 0 min 0 W/m 0,0 km/h (0 Bft) 97,83 %
16.06.2019 01:32 16,2 C 15,6 C 15,0 C 88 % 1017,0 hPa 0,0 l/m 0 min 0 min 0 W/m 0,0 km/h (0 Bft) 100,00 %
16.06.2019 01:30 16,2 C 15,6 C 15,0 C 87 % 1017,0 hPa 0,0 l/m 0 min 0 min 0 W/m 0,0 km/h (0 Bft) 95,74 %
16.06.2019 01:28 16,2 C 15,6 C 15,0 C 87 % 1017,0 hPa 0,0 l/m 0 min 0 min 0 W/m 0,0 km/h (0 Bft) 97,87 %
16.06.2019 01:26 16,2 C 15,6 C 15,0 C 87 % 1017,0 hPa 0,0 l/m 0 min 0 min 0 W/m 0,0 km/h (0 Bft) 95,74 %
16.06.2019 01:24 16,2 C 15,6 C 15,0 C 87 % 1017,0 hPa 0,0 l/m 0 min 0 min 0 W/m 0,0 km/h (0 Bft) 97,87 %
16.06.2019 01:22 16,2 C 15,6 C 15,0 C 87 % 1016,9 hPa 0,0 l/m 0 min 0 min 0 W/m 0,0 km/h (0 Bft) 97,83 %
16.06.2019 01:20 16,2 C 15,6 C 15,0 C 87 % 1016,9 hPa 0,0 l/m 0 min 0 min 0 W/m 0,0 km/h (0 Bft) 97,87 %
16.06.2019 01:18 16,2 C 15,6 C 15,0 C 87 % 1016,9 hPa 0,0 l/m 0 min 0 min 0 W/m 0,0 km/h (0 Bft) 97,87 %
16.06.2019 01:16 16,2 C 15,6 C 15,0 C 87 % 1016,9 hPa 0,0 l/m 0 min 0 min 0 W/m 0,0 km/h (0 Bft) 97,87 %
16.06.2019 01:14 16,2 C 15,6 C 15,0 C 87 % 1016,9 hPa 0,0 l/m 0 min 0 min 0 W/m 0,0 km/h (0 Bft) 97,87 %
16.06.2019 01:12 16,2 C 15,6 C 15,0 C 87 % 1016,8 hPa 0,0 l/m 0 min 0 min 0 W/m 0,0 km/h (0 Bft) 95,74 %
16.06.2019 01:10 16,2 C 15,6 C 15,0 C 87 % 1016,9 hPa 0,0 l/m 0 min 0 min 0 W/m 0,0 km/h (0 Bft) 97,83 %
16.06.2019 01:08 16,2 C 15,6 C 15,0 C 87 % 1016,9 hPa 0,0 l/m 0 min 0 min 0 W/m 0,0 km/h (0 Bft) 97,87 %
16.06.2019 01:06 16,2 C 15,6 C 15,0 C 87 % 1016,9 hPa 0,0 l/m 0 min 0 min 0 W/m 0,0 km/h (0 Bft) 97,87 %
16.06.2019 01:04 16,2 C 15,6 C 15,0 C 87 % 1016,9 hPa 0,0 l/m 0 min 0 min 0 W/m 0,0 km/h (0 Bft) 97,87 %
16.06.2019 01:02 16,2 C 15,6 C 15,0 C 87 % 1016,9 hPa 0,0 l/m 0 min 0 min 0 W/m 0,0 km/h (0 Bft) 97,87 %
16.06.2019 01:00 16,2 C 15,6 C 15,0 C 87 % 1016,9 hPa 0,0 l/m 0 min 0 min 0 W/m 0,0 km/h (0 Bft) 97,87 %
16.06.2019 00:58 16,2 C 15,6 C 15,0 C 87 % 1016,9 hPa 0,0 l/m 0 min 0 min 0 W/m 0,0 km/h (0 Bft) 97,83 %
16.06.2019 00:56 16,2 C 15,6 C 15,0 C 87 % 1016,8 hPa 0,0 l/m 0 min 0 min 0 W/m 0,0 km/h (0 Bft) 97,87 %
16.06.2019 00:54 16,2 C 15,6 C 15,0 C 87 % 1016,8 hPa 0,0 l/m 0 min 0 min 0 W/m 0,0 km/h (0 Bft) 95,74 %
16.06.2019 00:52 16,2 C 15,6 C 15,0 C 87 % 1016,8 hPa 0,0 l/m 0 min 0 min 0 W/m 0,0 km/h (0 Bft) 97,87 %
16.06.2019 00:50 16,2 C 15,6 C 15,0 C 86 % 1016,7 hPa 0,0 l/m 0 min 0 min 0 W/m 0,0 km/h (0 Bft) 97,87 %
16.06.2019 00:48 16,2 C 15,6 C 15,0 C 86 % 1016,7 hPa 0,0 l/m 0 min 0 min 0 W/m 0,0 km/h (0 Bft) 97,87 %
16.06.2019 00:46 16,2 C 15,6 C 15,0 C 86 % 1016,7 hPa 0,0 l/m 0 min 0 min 0 W/m 0,0 km/h (0 Bft) 97,83 %
16.06.2019 00:44 16,2 C 15,6 C 15,0 C 86 % 1016,7 hPa 0,0 l/m 0 min 0 min 0 W/m 0,0 km/h (0 Bft) 100,00 %
16.06.2019 00:42 16,2 C 15,6 C 15,0 C 86 % 1016,7 hPa 0,0 l/m 0 min 0 min 0 W/m 0,0 km/h (0 Bft) 100,00 %
16.06.2019 00:40 16,3 C 15,6 C 15,0 C 86 % 1016,7 hPa 0,0 l/m 0 min 0 min 0 W/m 0,0 km/h (0 Bft) 100,00 %
16.06.2019 00:38 16,3 C 15,6 C 15,0 C 86 % 1016,7 hPa 0,0 l/m 0 min 0 min 0 W/m 0,0 km/h (0 Bft) 100,00 %
16.06.2019 00:36 16,3 C 15,0 C 15,0 C 86 % 1016,5 hPa 0,0 l/m 0 min 0 min 0 W/m 0,0 km/h (0 Bft) 97,87 %
16.06.2019 00:34 16,3 C 15,0 C 15,0 C 86 % 1016,5 hPa 0,0 l/m 0 min 0 min 0 W/m 0,0 km/h (0 Bft) 100,00 %
16.06.2019 00:32 16,3 C 15,0 C 15,0 C 85 % 1016,6 hPa 0,0 l/m 0 min 0 min 0 W/m 0,0 km/h (0 Bft) 100,00 %
16.06.2019 00:30 16,3 C 15,0 C 15,0 C 85 % 1016,6 hPa 0,0 l/m 0 min 0 min 0 W/m 0,0 km/h (0 Bft) 100,00 %
16.06.2019 00:28 16,3 C 15,0 C 15,0 C 85 % 1016,6 hPa 0,0 l/m 0 min 0 min 0 W/m 0,0 km/h (0 Bft) 100,00 %
16.06.2019 00:26 16,3 C 15,0 C 14,4 C 85 % 1016,6 hPa 0,0 l/m 0 min 0 min 0 W/m 0,0 km/h (0 Bft) 97,87 %
16.06.2019 00:24 16,3 C 15,0 C 14,4 C 85 % 1016,6 hPa 0,0 l/m 0 min 0 min 0 W/m 0,0 km/h (0 Bft) 100,00 %
16.06.2019 00:22 16,3 C 15,0 C 14,4 C 85 % 1016,5 hPa 0,0 l/m 0 min 0 min 0 W/m 0,0 km/h (0 Bft) 97,87 %
16.06.2019 00:20 16,3 C 15,0 C 14,4 C 85 % 1016,4 hPa 0,0 l/m 0 min 0 min 0 W/m 0,0 km/h (0 Bft) 100,00 %
16.06.2019 00:18 16,4 C 15,0 C 14,4 C 85 % 1016,4 hPa 0,0 l/m 0 min 0 min 0 W/m 0,0 km/h (0 Bft) 95,74 %
16.06.2019 00:16 16,4 C 15,0 C 14,4 C 85 % 1016,5 hPa 0,0 l/m 0 min 0 min 0 W/m 0,0 km/h (0 Bft) 100,00 %
16.06.2019 00:14 16,4 C 15,0 C 14,4 C 85 % 1016,4 hPa 0,0 l/m 0 min 0 min 0 W/m 0,0 km/h (0 Bft) 100,00 %
16.06.2019 00:12 16,4 C 15,0 C 14,4 C 85 % 1016,4 hPa 0,0 l/m 0 min 0 min 0 W/m 0,0 km/h (0 Bft) 97,83 %
16.06.2019 00:10 16,4 C 15,0 C 14,4 C 85 % 1016,4 hPa 0,0 l/m 0 min 0 min 0 W/m 0,0 km/h (0 Bft) 95,74 %
16.06.2019 00:08 16,4 C 15,0 C 14,4 C 85 % 1016,4 hPa 0,0 l/m 0 min 0 min 0 W/m 0,0 km/h (0 Bft) 96,81 %
16.06.2019 00:04 16,5 C 15,0 C 14,4 C 85 % 1016,3 hPa 0,0 l/m 0 min 0 min 0 W/m 0,0 km/h (0 Bft) 88,89 %
16.06.2019 00:02 16,5 C 15,0 C 14,4 C 85 % 1016,2 hPa 0,0 l/m 0 min 0 min 0 W/m 0,0 km/h (0 Bft) 11,11 %
16.06.2019 00:00 16,5 C 15,0 C 14,4 C 85 % 1016,2 hPa 0,0 l/m 0 min 0 min 0 W/m 0,0 km/h (0 Bft) 97,83 %
15.06.2019 23:58 16,5 C 15,0 C 15,0 C 85 % 1016,3 hPa 0,0 l/m 0 min 0 min 0 W/m 0,0 km/h (0 Bft) 95,74 %
15.06.2019 23:56 16,6 C 15,0 C 15,0 C 85 % 1016,3 hPa 0,0 l/m 0 min 0 min 0 W/m 0,0 km/h (0 Bft) 95,74 %
15.06.2019 23:54 16,6 C 15,6 C 15,0 C 84 % 1016,3 hPa 0,0 l/m 0 min 0 min 0 W/m 0,0 km/h (0 Bft) 95,74 %
15.06.2019 23:52 16,6 C 15,0 C 15,0 C 84 % 1016,3 hPa 0,0 l/m 0 min 0 min 0 W/m 0,0 km/h (0 Bft) 95,74 %
15.06.2019 23:50 16,6 C 15,0 C 15,0 C 84 % 1016,3 hPa 0,0 l/m 0 min 0 min 0 W/m 0,0 km/h (0 Bft) 95,74 %
15.06.2019 23:48 16,6 C 15,0 C 15,0 C 84 % 1016,2 hPa 0,0 l/m 0 min 0 min 0 W/m 0,0 km/h (0 Bft) 95,65 %
15.06.2019 23:46 16,6 C 15,0 C 15,0 C 84 % 1016,2 hPa 0,0 l/m 0 min 0 min 0 W/m 0,0 km/h (0 Bft) 95,74 %
15.06.2019 23:44 16,7 C 15,6 C 15,0 C 84 % 1016,3 hPa 0,0 l/m 0 min 0 min 0 W/m 0,0 km/h (0 Bft) 95,74 %
15.06.2019 23:42 16,7 C 15,6 C 15,0 C 84 % 1016,2 hPa 0,0 l/m 0 min 0 min 0 W/m 0,0 km/h (0 Bft) 93,62 %
15.06.2019 23:40 16,7 C 15,0 C 15,0 C 84 % 1016,1 hPa 0,0 l/m 0 min 0 min 0 W/m 0,0 km/h (0 Bft) 95,74 %
15.06.2019 23:38 16,7 C 15,0 C 14,4 C 84 % 1016,1 hPa 0,0 l/m 0 min 0 min 0 W/m 3,2 km/h (1 Bft) 93,48 %
15.06.2019 23:36 16,8 C 15,0 C 15,0 C 83 % 1016,1 hPa 0,0 l/m 0 min 0 min 0 W/m 0,0 km/h (0 Bft) 95,74 %
15.06.2019 23:34 16,8 C 15,6 C 15,0 C 83 % 1016,1 hPa 0,0 l/m 0 min 0 min 0 W/m 0,0 km/h (0 Bft) 95,74 %
15.06.2019 23:32 16,8 C 15,6 C 14,4 C 83 % 1016,1 hPa 0,0 l/m 0 min 0 min 0 W/m 0,0 km/h (0 Bft) 95,74 %
15.06.2019 23:30 16,8 C 15,0 C 14,4 C 82 % 1016,1 hPa 0,0 l/m 0 min 0 min 0 W/m 6,4 km/h (2 Bft) 97,87 %
15.06.2019 23:28 16,9 C 15,0 C 14,4 C 82 % 1016,0 hPa 0,0 l/m 0 min 0 min 0 W/m 0,0 km/h (0 Bft) 97,87 %
15.06.2019 23:26 16,9 C 15,6 C 14,4 C 82 % 1016,0 hPa 0,0 l/m 0 min 0 min 0 W/m 0,0 km/h (0 Bft) 95,65 %
15.06.2019 23:24 16,9 C 15,6 C 14,4 C 82 % 1016,0 hPa 0,0 l/m 0 min 0 min 0 W/m 0,0 km/h (0 Bft) 95,74 %
15.06.2019 23:22 16,9 C 15,6 C 14,4 C 81 % 1016,0 hPa 0,0 l/m 0 min 0 min 0 W/m 3,2 km/h (1 Bft) 95,74 %
15.06.2019 23:20 17,0 C 15,0 C 14,4 C 81 % 1015,9 hPa 0,0 l/m 0 min 0 min 0 W/m 3,2 km/h (1 Bft) 97,87 %
15.06.2019 23:18 17,0 C 15,0 C 14,4 C 81 % 1015,8 hPa 0,0 l/m 0 min 0 min 0 W/m 0,0 km/h (0 Bft) 97,87 %
15.06.2019 23:16 17,1 C 15,0 C 14,4 C 81 % 1015,8 hPa 0,0 l/m 0 min 0 min 0 W/m 3,2 km/h (1 Bft) 95,74 %
15.06.2019 23:14 17,1 C 15,0 C 14,4 C 81 % 1015,8 hPa 0,0 l/m 0 min 0 min 0 W/m 3,2 km/h (1 Bft) 97,83 %
15.06.2019 23:12 17,1 C 15,0 C 14,4 C 81 % 1015,8 hPa 0,0 l/m 0 min 0 min 0 W/m 0,0 km/h (0 Bft) 97,87 %
15.06.2019 23:10 17,2 C 15,0 C 14,4 C 80 % 1015,8 hPa 0,0 l/m 0 min 0 min 0 W/m 0,0 km/h (0 Bft) 95,74 %
15.06.2019 23:08 17,2 C 15,0 C 14,4 C 80 % 1015,7 hPa 0,0 l/m 0 min 0 min 0 W/m 0,0 km/h (0 Bft) 97,87 %
15.06.2019 23:06 17,2 C 15,0 C 14,4 C 80 % 1015,7 hPa 0,0 l/m 0 min 0 min 0 W/m 0,0 km/h (0 Bft) 97,87 %
15.06.2019 23:04 17,3 C 15,0 C 14,4 C 80 % 1015,8 hPa 0,0 l/m 0 min 0 min 0 W/m 0,0 km/h (0 Bft) 97,87 %
15.06.2019 23:02 17,3 C 15,0 C 14,4 C 80 % 1015,7 hPa 0,0 l/m 0 min 0 min 0 W/m 0,0 km/h (0 Bft) 97,83 %
15.06.2019 23:00 17,4 C 15,0 C 14,4 C 80 % 1015,8 hPa 0,0 l/m 0 min 0 min 0 W/m 0,0 km/h (0 Bft) 97,87 %
15.06.2019 22:58 17,4 C 15,0 C 14,4 C 80 % 1015,8 hPa 0,0 l/m 0 min 0 min 0 W/m 0,0 km/h (0 Bft) 97,87 %
15.06.2019 22:56 17,5 C 15,0 C 14,4 C 80 % 1015,7 hPa 0,0 l/m 0 min 0 min 0 W/m 0,0 km/h (0 Bft) 97,87 %
15.06.2019 22:54 17,6 C 15,0 C 14,4 C 80 % 1015,7 hPa 0,0 l/m 0 min 0 min 0 W/m 3,2 km/h (1 Bft) 97,87 %
15.06.2019 22:52 17,6 C 15,0 C 14,4 C 79 % 1015,7 hPa 0,0 l/m 0 min 0 min 0 W/m 6,4 km/h (2 Bft) 97,83 %
15.06.2019 22:50 17,7 C 15,0 C 14,4 C 79 % 1015,6 hPa 0,0 l/m 0 min 0 min 0 W/m 0,0 km/h (0 Bft) 95,74 %
15.06.2019 22:48 17,7 C 15,0 C 14,4 C 79 % 1015,6 hPa 0,0 l/m 0 min 0 min 0 W/m 0,0 km/h (0 Bft) 97,87 %
15.06.2019 22:46 17,8 C 15,0 C 14,4 C 79 % 1015,7 hPa 0,0 l/m 0 min 0 min 0 W/m 0,0 km/h (0 Bft) 100,00 %
15.06.2019 22:44 17,8 C 15,6 C 14,4 C 79 % 1015,7 hPa 0,0 l/m 0 min 0 min 0 W/m 0,0 km/h (0 Bft) 100,00 %
15.06.2019 22:42 17,9 C 15,0 C 14,4 C 78 % 1015,6 hPa 0,0 l/m 0 min 0 min 0 W/m 0,0 km/h (0 Bft) 97,87 %
15.06.2019 22:40 17,9 C 15,0 C 14,4 C 78 % 1015,6 hPa 0,0 l/m 0 min 0 min 0 W/m 3,2 km/h (1 Bft) 97,87 %
15.06.2019 22:38 18,0 C 15,0 C 14,4 C 78 % 1015,6 hPa 0,0 l/m 0 min 0 min 0 W/m 0,0 km/h (0 Bft) 100,00 %
15.06.2019 22:36 18,1 C 15,0 C 14,4 C 78 % 1015,5 hPa 0,0 l/m 0 min 0 min 0 W/m 0,0 km/h (0 Bft) 97,87 %
15.06.2019 22:34 18,1 C 15,0 C 14,4 C 78 % 1015,5 hPa 0,0 l/m 0 min 0 min 0 W/m 0,0 km/h (0 Bft) 97,87 %
15.06.2019 22:32 18,2 C 15,0 C 14,4 C 78 % 1015,4 hPa 0,0 l/m 0 min 0 min 0 W/m 0,0 km/h (0 Bft) 97,87 %
15.06.2019 22:30 18,2 C 15,0 C 14,4 C 78 % 1015,3 hPa 0,0 l/m 0 min 0 min 0 W/m 0,0 km/h (0 Bft) 95,74 %
15.06.2019 22:28 18,3 C 15,0 C 14,4 C 77 % 1015,3 hPa 0,0 l/m 0 min 0 min 0 W/m 0,0 km/h (0 Bft) 97,83 %
15.06.2019 22:26 18,4 C 15,0 C 14,4 C 76 % 1015,2 hPa 0,0 l/m 0 min 0 min 0 W/m 0,0 km/h (0 Bft) 97,87 %
15.06.2019 22:24 18,4 C 15,6 C 14,4 C 76 % 1015,2 hPa 0,0 l/m 0 min 0 min 0 W/m 0,0 km/h (0 Bft) 97,87 %
15.06.2019 22:22 18,6 C 15,6 C 14,4 C 76 % 1015,2 hPa 0,0 l/m 0 min 0 min 0 W/m 0,0 km/h (0 Bft) 97,87 %
15.06.2019 22:20 18,6 C 15,6 C 15,0 C 76 % 1015,2 hPa 0,0 l/m 0 min 0 min 0 W/m 0,0 km/h (0 Bft) 95,74 %
15.06.2019 22:18 18,7 C 15,6 C 15,0 C 76 % 1015,2 hPa 0,0 l/m 0 min 0 min 0 W/m 0,0 km/h (0 Bft) 97,87 %
15.06.2019 22:16 18,7 C 15,6 C 15,0 C 75 % 1015,2 hPa 0,0 l/m 0 min 0 min 0 W/m 0,0 km/h (0 Bft) 97,83 %
15.06.2019 22:14 18,8 C 16,1 C 15,0 C 75 % 1015,2 hPa 0,0 l/m 0 min 0 min 0 W/m 0,0 km/h (0 Bft) 97,87 %
15.06.2019 22:12 18,8 C 16,1 C 15,0 C 75 % 1015,2 hPa 0,0 l/m 0 min 0 min 0 W/m 0,0 km/h (0 Bft) 97,87 %
15.06.2019 22:10 18,9 C 16,1 C 15,0 C 74 % 1015,1 hPa 0,0 l/m 0 min 0 min 0 W/m 0,0 km/h (0 Bft) 97,87 %
15.06.2019 22:08 19,0 C 16,1 C 15,0 C 74 % 1015,1 hPa 0,0 l/m 0 min 0 min 0 W/m 0,0 km/h (0 Bft) 97,87 %
15.06.2019 22:06 19,0 C 16,1 C 15,0 C 74 % 1015,2 hPa 0,0 l/m 0 min 0 min 0 W/m 0,0 km/h (0 Bft) 95,74 %
15.06.2019 22:04 19,1 C 16,1 C 15,0 C 73 % 1015,2 hPa 0,0 l/m 0 min 0 min 0 W/m 0,0 km/h (0 Bft) 97,83 %
15.06.2019 22:02 19,2 C 16,1 C 15,0 C 73 % 1015,3 hPa 0,0 l/m 0 min 0 min 0 W/m 0,0 km/h (0 Bft) 93,62 %
15.06.2019 22:00 19,2 C 16,1 C 15,0 C 73 % 1015,3 hPa 0,0 l/m 0 min 0 min 0 W/m 0,0 km/h (0 Bft) 97,87 %
15.06.2019 21:58 19,3 C 16,7 C 15,6 C 73 % 1015,3 hPa 0,0 l/m 0 min 0 min 0 W/m 0,0 km/h (0 Bft) 97,87 %
15.06.2019 21:56 19,3 C 16,7 C 15,6 C 73 % 1015,4 hPa 0,0 l/m 0 min 0 min 0 W/m 0,0 km/h (0 Bft) 97,87 %
15.06.2019 21:54 19,4 C 16,7 C 15,6 C 72 % 1015,3 hPa 0,0 l/m 0 min 0 min 0 W/m 0,0 km/h (0 Bft) 93,62 %
15.06.2019 21:52 19,4 C 16,7 C 15,6 C 72 % 1015,4 hPa 0,0 l/m 0 min 0 min 0 W/m 0,0 km/h (0 Bft) 95,65 %
15.06.2019 21:50 19,5 C 16,7 C 15,6 C 72 % 1015,4 hPa 0,0 l/m 0 min 0 min 0 W/m 0,0 km/h (0 Bft) 95,74 %
15.06.2019 21:48 19,6 C 16,7 C 15,6 C 71 % 1015,3 hPa 0,0 l/m 0 min 0 min 5 W/m 0,0 km/h (0 Bft) 93,62 %
15.06.2019 21:46 19,6 C 17,2 C 16,1 C 71 % 1015,2 hPa 0,0 l/m 0 min 0 min 5 W/m 0,0 km/h (0 Bft) 93,62 %
15.06.2019 21:44 19,7 C 17,2 C 16,1 C 71 % 1015,2 hPa 0,0 l/m 0 min 0 min 5 W/m 0,0 km/h (0 Bft) 91,49 %
15.06.2019 21:42 19,7 C 17,2 C 16,1 C 70 % 1015,2 hPa 0,0 l/m 0 min 0 min 7 W/m 0,0 km/h (0 Bft) 95,74 %
15.06.2019 21:40 19,7 C 17,2 C 16,1 C 70 % 1015,1 hPa 0,0 l/m 0 min 0 min 7 W/m 0,0 km/h (0 Bft) 97,83 %
15.06.2019 21:38 19,8 C 17,8 C 16,1 C 70 % 1015,1 hPa 0,0 l/m 0 min 0 min 8 W/m 3,2 km/h (1 Bft) 95,74 %
15.06.2019 21:36 19,8 C 17,8 C 16,1 C 70 % 1015,2 hPa 0,0 l/m 0 min 0 min 9 W/m 3,2 km/h (1 Bft) 95,74 %
15.06.2019 21:34 19,9 C 17,8 C 16,1 C 69 % 1015,2 hPa 0,0 l/m 0 min 0 min 11 W/m 3,2 km/h (1 Bft) 95,74 %
15.06.2019 21:32 19,9 C 17,8 C 16,1 C 69 % 1015,1 hPa 0,0 l/m 0 min 0 min 11 W/m 0,0 km/h (0 Bft) 97,87 %
15.06.2019 21:30 20,0 C 17,8 C 16,1 C 69 % 1015,2 hPa 0,0 l/m 0 min 0 min 12 W/m 0,0 km/h (0 Bft) 97,83 %
15.06.2019 21:28 20,1 C 17,8 C 16,7 C 69 % 1015,1 hPa 0,0 l/m 0 min 0 min 12 W/m 0,0 km/h (0 Bft) 97,87 %
15.06.2019 21:26 20,1 C 17,8 C 16,7 C 69 % 1015,2 hPa 0,0 l/m 0 min 0 min 12 W/m 0,0 km/h (0 Bft) 97,87 %
15.06.2019 21:24 20,2 C 17,8 C 16,7 C 69 % 1015,2 hPa 0,0 l/m 0 min 0 min 13 W/m 0,0 km/h (0 Bft) 95,74 %
15.06.2019 21:22 20,2 C 17,8 C 16,7 C 69 % 1015,2 hPa 0,0 l/m 0 min 0 min 12 W/m 0,0 km/h (0 Bft) 97,87 %
15.06.2019 21:20 20,3 C 17,8 C 16,7 C 69 % 1015,2 hPa 0,0 l/m 0 min 0 min 12 W/m 0,0 km/h (0 Bft) 97,87 %
15.06.2019 21:18 20,4 C 17,8 C 16,7 C 70 % 1015,2 hPa 0,0 l/m 0 min 0 min 12 W/m 0,0 km/h (0 Bft) 97,83 %
15.06.2019 21:16 20,4 C 17,8 C 16,7 C 70 % 1015,2 hPa 0,0 l/m 0 min 0 min 11 W/m 0,0 km/h (0 Bft) 95,74 %
15.06.2019 21:14 20,5 C 17,8 C 16,7 C 69 % 1015,2 hPa 0,0 l/m 0 min 0 min 11 W/m 0,0 km/h (0 Bft) 95,74 %
15.06.2019 21:12 20,6 C 17,8 C 16,7 C 69 % 1015,1 hPa 0,0 l/m 0 min 0 min 12 W/m 0,0 km/h (0 Bft) 93,62 %
15.06.2019 21:10 20,6 C 18,3 C 17,2 C 69 % 1015,1 hPa 0,0 l/m 0 min 0 min 12 W/m 0,0 km/h (0 Bft) 100,00 %
15.06.2019 21:08 20,7 C 18,3 C 17,2 C 69 % 1015,1 hPa 0,0 l/m 0 min 0 min 12 W/m 0,0 km/h (0 Bft) 100,00 %
15.06.2019 21:06 20,8 C 18,3 C 17,2 C 69 % 1015,1 hPa 0,0 l/m 0 min 0 min 12 W/m 3,2 km/h (1 Bft) 97,83 %
15.06.2019 21:04 20,9 C 18,3 C 17,2 C 70 % 1015,1 hPa 0,0 l/m 0 min 0 min 13 W/m 9,7 km/h (2 Bft) 100,00 %
15.06.2019 21:02 21,0 C 18,3 C 17,2 C 70 % 1015,1 hPa 0,0 l/m 0 min 0 min 14 W/m 3,2 km/h (1 Bft) 100,00 %
15.06.2019 21:00 21,0 C 18,3 C 17,2 C 69 % 1015,2 hPa 0,0 l/m 0 min 0 min 16 W/m 0,0 km/h (0 Bft) 100,00 %
15.06.2019 20:58 21,1 C 18,9 C 17,2 C 68 % 1015,2 hPa 0,0 l/m 0 min 0 min 18 W/m 0,0 km/h (0 Bft) 100,00 %
15.06.2019 20:56 21,2 C 18,9 C 17,8 C 68 % 1015,2 hPa 0,0 l/m 0 min 0 min 19 W/m 0,0 km/h (0 Bft) 95,74 %
15.06.2019 20:54 21,2 C 18,9 C 17,8 C 68 % 1015,2 hPa 0,0 l/m 0 min 0 min 20 W/m 0,0 km/h (0 Bft) 100,00 %
15.06.2019 20:52 21,3 C 18,9 C 17,8 C 68 % 1015,2 hPa 0,0 l/m 0 min 0 min 24 W/m 0,0 km/h (0 Bft) 100,00 %
15.06.2019 20:50 21,3 C 18,9 C 17,8 C 68 % 1015,2 hPa 0,0 l/m 0 min 0 min 26 W/m 0,0 km/h (0 Bft) 100,00 %
15.06.2019 20:48 21,4 C 19,4 C 17,8 C 69 % 1015,2 hPa 0,0 l/m 0 min 0 min 26 W/m 0,0 km/h (0 Bft) 100,00 %
15.06.2019 20:46 21,4 C 19,4 C 18,3 C 68 % 1015,1 hPa 0,0 l/m 0 min 0 min 22 W/m 0,0 km/h (0 Bft) 97,87 %
15.06.2019 20:44 21,5 C 19,4 C 18,3 C 68 % 1015,1 hPa 0,0 l/m 0 min 0 min 20 W/m 0,0 km/h (0 Bft) 100,00 %
15.06.2019 20:42 21,5 C 19,4 C 18,3 C 67 % 1015,1 hPa 0,0 l/m 0 min 0 min 22 W/m 3,2 km/h (1 Bft) 100,00 %
15.06.2019 20:40 21,6 C 19,4 C 18,3 C 67 % 1015,2 hPa 0,0 l/m 0 min 0 min 24 W/m 0,0 km/h (0 Bft) 100,00 %
15.06.2019 20:38 21,6 C 19,4 C 18,3 C 67 % 1015,2 hPa 0,0 l/m 0 min 0 min 25 W/m 3,2 km/h (1 Bft) 97,87 %
15.06.2019 20:36 21,6 C 20,0 C 18,3 C 67 % 1015,1 hPa 0,0 l/m 0 min 0 min 25 W/m 3,2 km/h (1 Bft) 100,00 %
15.06.2019 20:34 21,7 C 20,0 C 18,9 C 67 % 1015,2 hPa 0,0 l/m 0 min 0 min 23 W/m 3,2 km/h (1 Bft) 100,00 %
15.06.2019 20:32 21,7 C 20,0 C 18,9 C 67 % 1015,2 hPa 0,0 l/m 0 min 0 min 25 W/m 3,2 km/h (1 Bft) 100,00 %
15.06.2019 20:30 21,8 C 20,0 C 18,9 C 67 % 1015,2 hPa 0,0 l/m 0 min 0 min 30 W/m 0,0 km/h (0 Bft) 100,00 %
15.06.2019 20:28 21,8 C 20,6 C 18,9 C 67 % 1015,3 hPa 0,0 l/m 0 min 0 min 39 W/m 0,0 km/h (0 Bft) 97,87 %
15.06.2019 20:26 21,8 C 20,6 C 18,9 C 67 % 1015,3 hPa 0,0 l/m 0 min 0 min 48 W/m 0,0 km/h (0 Bft) 97,87 %
15.06.2019 20:24 21,9 C 20,6 C 18,9 C 66 % 1015,3 hPa 0,0 l/m 0 min 0 min 63 W/m 0,0 km/h (0 Bft) 100,00 %
15.06.2019 20:22 21,9 C 20,6 C 19,4 C 66 % 1015,2 hPa 0,0 l/m 0 min 0 min 70 W/m 0,0 km/h (0 Bft) 100,00 %
15.06.2019 20:20 21,9 C 20,6 C 19,4 C 66 % 1015,3 hPa 0,0 l/m 0 min 0 min 74 W/m 6,4 km/h (2 Bft) 100,00 %
15.06.2019 20:18 21,9 C 21,1 C 19,4 C 66 % 1015,3 hPa 0,0 l/m 0 min 0 min 66 W/m 9,7 km/h (2 Bft) 97,83 %
15.06.2019 20:16 21,9 C 21,1 C 19,4 C 66 % 1015,3 hPa 0,0 l/m 0 min 0 min 64 W/m 0,0 km/h (0 Bft) 97,87 %
15.06.2019 20:14 21,9 C 21,1 C 19,4 C 66 % 1015,2 hPa 0,0 l/m 0 min 0 min 68 W/m 3,2 km/h (1 Bft) 100,00 %
15.06.2019 20:12 21,9 C 21,1 C 19,4 C 66 % 1015,2 hPa 0,0 l/m 0 min 0 min 71 W/m 3,2 km/h (1 Bft) 97,87 %
15.06.2019 20:10 22,0 C 21,1 C 19,4 C 66 % 1015,2 hPa 0,0 l/m 0 min 0 min 72 W/m 3,2 km/h (1 Bft) 97,87 %
15.06.2019 20:08 22,0 C 21,1 C 19,4 C 66 % 1015,2 hPa 0,0 l/m 0 min 0 min 73 W/m 3,2 km/h (1 Bft) 97,83 %
15.06.2019 20:06 22,0 C 21,7 C 20,0 C 65 % 1015,2 hPa 0,0 l/m 0 min 0 min 82 W/m 0,0 km/h (0 Bft) 97,87 %
15.06.2019 20:04 22,0 C 21,7 C 20,0 C 65 % 1015,3 hPa 0,0 l/m 0 min 0 min 98 W/m 0,0 km/h (0 Bft) 97,87 %
15.06.2019 20:02 22,0 C 21,7 C 20,0 C 66 % 1015,3 hPa 0,0 l/m 0 min 0 min 112 W/m 0,0 km/h (0 Bft) 97,92 %
15.06.2019 20:00 22,0 C 21,7 C 20,0 C 65 % 1015,3 hPa 0,0 l/m 2 min 0 min 129 W/m 0,0 km/h (0 Bft) 97,87 %
_ Min-Zeit 06:14 04:22 04:06 18:22 20:36 - - - - 20:00 00:02
Minimum _ 14,5 C 13,3 C 12,8 C 56 % 1015,1 hPa - - - - 0,0 km/h (0 Bft) 11,11 %
_ Max-Zeit 14:48 11:32 13:54 04:58 12:50 20:00 12:08 20:00 13:00 12:16 20:14
Maximum _ 24,4 C 29,4 C 31,1 C 92 % 1020,4 hPa 0,0 l/m 4 min 0 min 1192 W/m 41,8 km/h
O (6 Bft)
100,00 %
Durchschnitt _ 19,6 C 20,1 C 19,6 C 74 % 1018,1 hPa #0,0 l/m #7:44 h #0 min. 464 W/m 7,5 km/h (2 Bft) 97,47 %
© 2019 W. Hausmann